Time,TemperatureF,DewpointF,PressureIn,WindDirection,WindDirectionDegrees,WindSpeedMPH,WindSpeedGustMPH,Humidity,HourlyPrecipIn,Conditions,Clouds,dailyrainin,SolarRadiationWatts/m^2,SoftwareType,DateUTC
2013-02-13 00:03:00,45.7,43.2,30.30,ENE,77,0.0,-999.0,91,0.00,,,0.00,0,Wunderground v.1.15,2013-02-13 08:03:00,
2013-02-13 00:04:00,45.7,43.2,30.30,ESE,111,0.0,-999.0,91,0.00,,,0.00,0,Wunderground v.1.15,2013-02-13 08:04:00,
2013-02-13 00:07:00,45.7,43.2,30.30,ESE,111,0.0,-999.0,91,0.00,,,0.00,0,Wunderground v.1.15,2013-02-13 08:07:00,
2013-02-13 00:08:00,45.5,43.0,30.30,SE,141,3.0,-999.0,91,0.00,,,0.00,0,Wunderground v.1.15,2013-02-13 08:08:00,
2013-02-13 00:10:00,45.5,43.0,30.30,SE,141,1.0,-999.0,91,0.00,,,0.00,0,Wunderground v.1.15,2013-02-13 08:10:00,
2013-02-13 00:12:00,45.5,43.0,30.30,SE,141,0.0,-999.0,91,0.00,,,0.00,0,Wunderground v.1.15,2013-02-13 08:12:00,
2013-02-13 00:15:00,45.7,43.2,30.30,SE,141,0.0,-999.0,91,0.00,,,0.00,0,Wunderground v.1.15,2013-02-13 08:15:00,
2013-02-13 00:18:00,45.7,43.2,30.31,WSW,248,0.0,-999.0,91,0.00,,,0.00,0,Wunderground v.1.15,2013-02-13 08:18:00,
2013-02-13 00:21:00,45.7,43.2,30.31,WSW,251,0.0,-999.0,91,0.00,,,0.00,0,Wunderground v.1.15,2013-02-13 08:21:00,
2013-02-13 00:23:00,45.5,43.0,30.31,WSW,248,0.0,-999.0,91,0.00,,,0.00,0,Wunderground v.1.15,2013-02-13 08:23:00,
2013-02-13 00:28:00,45.5,43.0,30.31,WSW,251,0.0,-999.0,91,0.00,,,0.00,0,Wunderground v.1.15,2013-02-13 08:28:00,
2013-02-13 00:30:00,45.5,43.0,30.31,WSW,251,0.0,-999.0,91,0.00,,,0.00,0,Wunderground v.1.15,2013-02-13 08:30:00,
2013-02-13 00:32:00,45.5,43.0,30.32,WSW,251,0.0,-999.0,91,0.00,,,0.00,0,Wunderground v.1.15,2013-02-13 08:32:00,
2013-02-13 00:34:00,45.5,43.0,30.32,WSW,251,0.0,-999.0,91,0.00,,,0.00,0,Wunderground v.1.15,2013-02-13 08:34:00,
2013-02-13 00:36:00,45.5,43.0,30.32,WSW,251,0.0,-999.0,91,0.00,,,0.00,0,Wunderground v.1.15,2013-02-13 08:36:00,
2013-02-13 00:37:00,45.5,43.0,30.32,WSW,251,0.0,-999.0,91,0.00,,,0.00,0,Wunderground v.1.15,2013-02-13 08:37:00,
2013-02-13 00:40:00,45.5,43.0,30.32,WSW,251,0.0,-999.0,91,0.00,,,0.00,0,Wunderground v.1.15,2013-02-13 08:40:00,
2013-02-13 00:41:00,45.5,43.0,30.32,WSW,251,0.0,-999.0,91,0.00,,,0.00,0,Wunderground v.1.15,2013-02-13 08:41:00,
2013-02-13 00:45:00,45.4,42.9,30.32,NNW,344,0.0,-999.0,91,0.00,,,0.00,0,Wunderground v.1.15,2013-02-13 08:45:00,
2013-02-13 00:48:00,45.4,42.9,30.33,NNW,344,0.0,-999.0,91,0.00,,,0.00,0,Wunderground v.1.15,2013-02-13 08:48:00,
2013-02-13 00:50:00,45.4,42.9,30.33,NNW,344,0.0,-999.0,91,0.00,,,0.00,0,Wunderground v.1.15,2013-02-13 08:50:00,
2013-02-13 00:51:00,45.4,42.9,30.33,NNW,344,0.0,-999.0,91,0.00,,,0.00,0,Wunderground v.1.15,2013-02-13 08:51:00,
2013-02-13 00:53:00,45.4,42.9,30.33,NNW,344,0.0,-999.0,91,0.00,,,0.00,0,Wunderground v.1.15,2013-02-13 08:53:00,
2013-02-13 00:54:00,45.4,42.9,30.33,NNW,344,0.0,-999.0,91,0.00,,,0.00,0,Wunderground v.1.15,2013-02-13 08:54:00,
2013-02-13 00:56:00,45.4,42.9,30.33,NNW,344,0.0,-999.0,91,0.00,,,0.00,0,Wunderground v.1.15,2013-02-13 08:56:00,
2013-02-13 00:59:00,45.4,42.9,30.33,NNW,344,0.0,-999.0,91,0.00,,,0.00,0,Wunderground v.1.15,2013-02-13 08:59:00,
2013-02-13 01:00:00,45.4,42.9,30.33,NNW,344,0.0,-999.0,91,0.00,,,0.00,0,Wunderground v.1.15,2013-02-13 09:00:00,
2013-02-13 01:02:00,45.4,42.9,30.33,NNW,344,0.0,-999.0,91,0.00,,,0.00,0,Wunderground v.1.15,2013-02-13 09:02:00,
2013-02-13 01:04:00,45.4,42.9,30.33,NNW,344,0.0,-999.0,91,0.00,,,0.00,0,Wunderground v.1.15,2013-02-13 09:04:00,
2013-02-13 01:05:00,45.4,42.9,30.33,NNW,344,0.0,-999.0,91,0.00,,,0.00,0,Wunderground v.1.15,2013-02-13 09:05:00,
2013-02-13 01:07:00,45.4,42.9,30.33,NNW,344,0.0,-999.0,91,0.00,,,0.00,0,Wunderground v.1.15,2013-02-13 09:07:00,
2013-02-13 01:08:00,45.4,42.9,30.33,NNW,344,0.0,-999.0,91,0.00,,,0.00,0,Wunderground v.1.15,2013-02-13 09:08:00,
2013-02-13 01:09:00,45.4,42.9,30.33,NNW,344,0.0,-999.0,91,0.00,,,0.00,0,Wunderground v.1.15,2013-02-13 09:09:00,
2013-02-13 01:13:00,45.2,42.7,30.33,NNW,344,0.0,-999.0,91,0.00,,,0.00,0,Wunderground v.1.15,2013-02-13 09:13:00,
2013-02-13 01:14:00,45.2,42.7,30.33,NNW,344,0.0,-999.0,91,0.00,,,0.00,0,Wunderground v.1.15,2013-02-13 09:14:00,
2013-02-13 01:16:00,45.2,42.7,30.33,NNW,344,0.0,-999.0,91,0.00,,,0.00,0,Wunderground v.1.15,2013-02-13 09:16:00,
2013-02-13 01:21:00,45.1,42.6,30.33,NNW,344,0.0,-999.0,91,0.00,,,0.00,0,Wunderground v.1.15,2013-02-13 09:21:00,
2013-02-13 01:22:00,45.1,42.6,30.33,NNW,344,0.0,-999.0,91,0.00,,,0.00,0,Wunderground v.1.15,2013-02-13 09:22:00,
2013-02-13 01:24:00,45.1,42.6,30.33,NNW,344,0.0,-999.0,91,0.00,,,0.00,0,Wunderground v.1.15,2013-02-13 09:24:00,
2013-02-13 01:26:00,44.9,42.4,30.33,NNW,344,0.0,-999.0,91,0.00,,,0.00,0,Wunderground v.1.15,2013-02-13 09:26:00,
2013-02-13 01:27:00,44.9,42.4,30.33,NNW,344,0.0,-999.0,91,0.00,,,0.00,0,Wunderground v.1.15,2013-02-13 09:27:00,
2013-02-13 01:29:00,44.9,42.4,30.33,NNW,344,0.0,-999.0,91,0.00,,,0.00,0,Wunderground v.1.15,2013-02-13 09:29:00,
2013-02-13 01:32:00,44.8,42.3,30.33,NNW,344,0.0,-999.0,91,0.00,,,0.00,0,Wunderground v.1.15,2013-02-13 09:32:00,
2013-02-13 01:33:00,44.8,42.3,30.33,NNW,344,0.0,-999.0,91,0.00,,,0.00,0,Wunderground v.1.15,2013-02-13 09:33:00,
2013-02-13 01:34:00,44.7,42.2,30.33,NNW,344,0.0,-999.0,91,0.00,,,0.00,0,Wunderground v.1.15,2013-02-13 09:34:00,
2013-02-13 01:35:00,44.7,42.2,30.33,NNW,344,0.0,-999.0,91,0.00,,,0.00,0,Wunderground v.1.15,2013-02-13 09:35:00,
2013-02-13 01:39:00,44.5,42.0,30.33,NNW,344,0.0,-999.0,91,0.00,,,0.00,0,Wunderground v.1.15,2013-02-13 09:39:00,
2013-02-13 01:40:00,44.5,42.0,30.33,WSW,242,0.0,-999.0,91,0.00,,,0.00,0,Wunderground v.1.15,2013-02-13 09:40:00,
2013-02-13 01:41:00,44.5,42.0,30.33,West,265,0.0,-999.0,91,0.00,,,0.00,0,Wunderground v.1.15,2013-02-13 09:41:00,
2013-02-13 01:46:00,44.4,41.9,30.33,WSW,244,1.0,-999.0,91,0.00,,,0.00,0,Wunderground v.1.15,2013-02-13 09:46:00,
2013-02-13 01:48:00,44.2,41.7,30.33,West,276,2.0,-999.0,91,0.00,,,0.00,0,Wunderground v.1.15,2013-02-13 09:48:00,
2013-02-13 01:49:00,44.2,41.7,30.33,WSW,258,0.0,-999.0,91,0.00,,,0.00,0,Wunderground v.1.15,2013-02-13 09:49:00,
2013-02-13 01:52:00,44.1,41.6,30.33,WSW,241,1.0,-999.0,91,0.00,,,0.00,0,Wunderground v.1.15,2013-02-13 09:52:00,
2013-02-13 01:53:00,44.1,41.6,30.33,WSW,241,0.0,-999.0,91,0.00,,,0.00,0,Wunderground v.1.15,2013-02-13 09:53:00,
2013-02-13 01:54:00,44.1,41.6,30.33,WSW,252,0.0,-999.0,91,0.00,,,0.00,0,Wunderground v.1.15,2013-02-13 09:54:00,
2013-02-13 01:57:00,44.1,41.6,30.33,WSW,249,0.0,-999.0,91,0.00,,,0.00,0,Wunderground v.1.15,2013-02-13 09:57:00,
2013-02-13 01:58:00,44.1,41.6,30.33,WSW,249,0.0,-999.0,91,0.00,,,0.00,0,Wunderground v.1.15,2013-02-13 09:58:00,
2013-02-13 01:59:00,44.1,41.6,30.33,SSW,194,1.0,-999.0,91,0.00,,,0.00,0,Wunderground v.1.15,2013-02-13 09:59:00,
2013-02-13 02:00:00,44.1,41.6,30.33,NNW,331,0.0,-999.0,91,0.00,,,0.00,0,Wunderground v.1.15,2013-02-13 10:00:00,
2013-02-13 02:02:00,44.1,41.6,30.33,NNW,331,0.0,-999.0,91,0.00,,,0.00,0,Wunderground v.1.15,2013-02-13 10:02:00,
2013-02-13 02:03:00,44.1,41.6,30.33,NNW,331,0.0,-999.0,91,0.00,,,0.00,0,Wunderground v.1.15,2013-02-13 10:03:00,
2013-02-13 02:04:00,44.1,41.6,30.33,NNW,331,0.0,-999.0,91,0.00,,,0.00,0,Wunderground v.1.15,2013-02-13 10:04:00,
2013-02-13 02:05:00,44.1,41.6,30.33,NNW,331,1.0,-999.0,91,0.00,,,0.00,0,Wunderground v.1.15,2013-02-13 10:05:00,
2013-02-13 02:07:00,44.1,41.6,30.33,NNW,331,0.0,-999.0,91,0.00,,,0.00,0,Wunderground v.1.15,2013-02-13 10:07:00,
2013-02-13 02:08:00,43.9,41.4,30.33,NNW,331,0.0,-999.0,91,0.00,,,0.00,0,Wunderground v.1.15,2013-02-13 10:08:00,
2013-02-13 02:09:00,43.9,41.4,30.33,North,359,1.0,-999.0,91,0.00,,,0.00,0,Wunderground v.1.15,2013-02-13 10:09:00,
2013-02-13 02:10:00,43.9,41.4,30.33,North,359,0.0,-999.0,91,0.00,,,0.00,0,Wunderground v.1.15,2013-02-13 10:10:00,
2013-02-13 02:12:00,43.9,41.4,30.33,North,359,0.0,-999.0,91,0.00,,,0.00,0,Wunderground v.1.15,2013-02-13 10:12:00,
2013-02-13 02:13:00,43.9,41.4,30.33,North,359,0.0,-999.0,91,0.00,,,0.00,0,Wunderground v.1.15,2013-02-13 10:13:00,
2013-02-13 02:14:00,43.9,41.4,30.33,North,359,0.0,-999.0,91,0.00,,,0.00,0,Wunderground v.1.15,2013-02-13 10:14:00,
2013-02-13 02:15:00,43.8,41.3,30.34,North,359,0.0,-999.0,91,0.00,,,0.00,0,Wunderground v.1.15,2013-02-13 10:15:00,
2013-02-13 02:17:00,43.8,41.3,30.34,North,359,0.0,-999.0,91,0.00,,,0.00,0,Wunderground v.1.15,2013-02-13 10:17:00,
2013-02-13 02:19:00,43.8,41.3,30.34,North,359,0.0,-999.0,91,0.00,,,0.00,0,Wunderground v.1.15,2013-02-13 10:19:00,
2013-02-13 02:21:00,43.8,41.3,30.34,North,359,0.0,-999.0,91,0.00,,,0.00,0,Wunderground v.1.15,2013-02-13 10:21:00,
2013-02-13 02:22:00,43.8,41.3,30.34,North,359,0.0,-999.0,91,0.00,,,0.00,0,Wunderground v.1.15,2013-02-13 10:22:00,
2013-02-13 02:24:00,43.8,41.3,30.34,North,359,0.0,-999.0,91,0.00,,,0.00,0,Wunderground v.1.15,2013-02-13 10:24:00,
2013-02-13 02:25:00,43.8,41.3,30.34,North,359,0.0,-999.0,91,0.00,,,0.00,0,Wunderground v.1.15,2013-02-13 10:25:00,
2013-02-13 02:26:00,43.8,41.3,30.34,North,359,0.0,-999.0,91,0.00,,,0.00,0,Wunderground v.1.15,2013-02-13 10:26:00,
2013-02-13 02:28:00,43.8,41.3,30.34,North,359,0.0,-999.0,91,0.00,,,0.00,0,Wunderground v.1.15,2013-02-13 10:28:00,
2013-02-13 02:29:00,43.8,41.3,30.34,North,359,0.0,-999.0,91,0.00,,,0.00,0,Wunderground v.1.15,2013-02-13 10:29:00,
2013-02-13 02:30:00,43.8,41.3,30.34,North,359,0.0,-999.0,91,0.00,,,0.00,0,Wunderground v.1.15,2013-02-13 10:30:00,
2013-02-13 02:31:00,43.8,41.3,30.34,North,359,0.0,-999.0,91,0.00,,,0.00,0,Wunderground v.1.15,2013-02-13 10:31:00,
2013-02-13 02:33:00,43.8,41.3,30.34,North,359,0.0,-999.0,91,0.00,,,0.00,0,Wunderground v.1.15,2013-02-13 10:33:00,
2013-02-13 02:34:00,43.7,41.2,30.34,North,359,0.0,-999.0,91,0.00,,,0.00,0,Wunderground v.1.15,2013-02-13 10:34:00,
2013-02-13 02:36:00,43.7,41.2,30.34,North,359,0.0,-999.0,91,0.00,,,0.00,0,Wunderground v.1.15,2013-02-13 10:36:00,
2013-02-13 02:39:00,43.7,41.2,30.34,North,359,0.0,-999.0,91,0.00,,,0.00,0,Wunderground v.1.15,2013-02-13 10:39:00,
2013-02-13 02:41:00,43.7,41.2,30.34,North,359,0.0,-999.0,91,0.00,,,0.00,0,Wunderground v.1.15,2013-02-13 10:41:00,
2013-02-13 02:42:00,43.7,41.2,30.34,North,359,0.0,-999.0,91,0.00,,,0.00,0,Wunderground v.1.15,2013-02-13 10:42:00,
2013-02-13 02:44:00,43.7,41.2,30.34,North,359,0.0,-999.0,91,0.00,,,0.00,0,Wunderground v.1.15,2013-02-13 10:44:00,
2013-02-13 02:46:00,43.8,41.3,30.34,NNW,345,1.0,-999.0,91,0.00,,,0.00,0,Wunderground v.1.15,2013-02-13 10:46:00,
2013-02-13 02:47:00,43.8,41.3,30.34,NNW,345,0.0,-999.0,91,0.00,,,0.00,0,Wunderground v.1.15,2013-02-13 10:47:00,
2013-02-13 02:49:00,43.8,41.3,30.34,NNW,345,0.0,-999.0,91,0.00,,,0.00,0,Wunderground v.1.15,2013-02-13 10:49:00,
2013-02-13 02:51:00,43.7,41.2,30.34,NNW,345,0.0,-999.0,91,0.00,,,0.00,0,Wunderground v.1.15,2013-02-13 10:51:00,
2013-02-13 02:52:00,43.7,41.2,30.34,NNW,345,0.0,-999.0,91,0.00,,,0.00,0,Wunderground v.1.15,2013-02-13 10:52:00,
2013-02-13 02:54:00,43.7,41.2,30.34,NNW,340,0.0,-999.0,91,0.00,,,0.00,0,Wunderground v.1.15,2013-02-13 10:54:00,
2013-02-13 02:55:00,43.7,41.2,30.34,NNW,344,3.0,-999.0,91,0.00,,,0.00,0,Wunderground v.1.15,2013-02-13 10:55:00,
2013-02-13 02:56:00,43.7,41.2,30.34,North,349,0.0,-999.0,91,0.00,,,0.00,0,Wunderground v.1.15,2013-02-13 10:56:00,
2013-02-13 02:57:00,43.8,41.3,30.34,North,349,1.0,-999.0,91,0.00,,,0.00,0,Wunderground v.1.15,2013-02-13 10:57:00,
2013-02-13 02:59:00,43.8,41.3,30.34,North,4,0.0,-999.0,91,0.00,,,0.00,0,Wunderground v.1.15,2013-02-13 10:59:00,
2013-02-13 03:00:00,43.8,41.3,30.34,North,4,0.0,-999.0,91,0.00,,,0.00,0,Wunderground v.1.15,2013-02-13 11:00:00,
2013-02-13 03:01:00,43.8,41.3,30.35,NNW,348,2.0,-999.0,91,0.00,,,0.00,0,Wunderground v.1.15,2013-02-13 11:01:00,
2013-02-13 03:02:00,43.8,41.3,30.35,ENE,78,2.0,-999.0,91,0.00,,,0.00,0,Wunderground v.1.15,2013-02-13 11:02:00,
2013-02-13 03:04:00,43.8,41.3,30.35,ENE,78,0.0,-999.0,91,0.00,,,0.00,0,Wunderground v.1.15,2013-02-13 11:04:00,
2013-02-13 03:06:00,43.8,41.3,30.35,NNW,333,3.0,-999.0,91,0.00,,,0.00,0,Wunderground v.1.15,2013-02-13 11:06:00,
2013-02-13 03:07:00,43.7,41.2,30.35,NW,325,0.0,-999.0,91,0.00,,,0.00,0,Wunderground v.1.15,2013-02-13 11:07:00,
2013-02-13 03:08:00,43.8,41.3,30.35,NNW,327,0.0,-999.0,91,0.00,,,0.00,0,Wunderground v.1.15,2013-02-13 11:08:00,
2013-02-13 03:10:00,43.8,41.3,30.35,SSE,160,3.0,-999.0,91,0.00,,,0.00,0,Wunderground v.1.15,2013-02-13 11:10:00,
2013-02-13 03:11:00,43.8,41.3,30.35,NW,325,1.0,-999.0,91,0.00,,,0.00,0,Wunderground v.1.15,2013-02-13 11:11:00,
2013-02-13 03:12:00,43.8,41.3,30.35,NW,325,0.0,-999.0,91,0.00,,,0.00,0,Wunderground v.1.15,2013-02-13 11:12:00,
2013-02-13 03:13:00,43.8,41.3,30.35,NW,325,0.0,-999.0,91,0.00,,,0.00,0,Wunderground v.1.15,2013-02-13 11:13:00,
2013-02-13 03:15:00,43.8,41.3,30.35,NNW,345,1.0,-999.0,91,0.00,,,0.00,0,Wunderground v.1.15,2013-02-13 11:15:00,
2013-02-13 03:16:00,43.8,41.3,30.35,NNW,345,0.0,-999.0,91,0.00,,,0.00,0,Wunderground v.1.15,2013-02-13 11:16:00,
2013-02-13 03:17:00,43.8,41.3,30.35,NNW,345,0.0,-999.0,91,0.00,,,0.00,0,Wunderground v.1.15,2013-02-13 11:17:00,
2013-02-13 03:18:00,43.8,41.3,30.35,NNW,345,1.0,-999.0,91,0.00,,,0.00,0,Wunderground v.1.15,2013-02-13 11:18:00,
2013-02-13 03:20:00,43.8,41.3,30.35,WNW,300,0.0,-999.0,91,0.00,,,0.00,0,Wunderground v.1.15,2013-02-13 11:20:00,
2013-02-13 03:21:00,43.8,41.3,30.35,NW,307,0.0,-999.0,91,0.00,,,0.00,0,Wunderground v.1.15,2013-02-13 11:21:00,
2013-02-13 03:22:00,43.8,41.3,30.35,North,357,0.0,-999.0,91,0.00,,,0.00,0,Wunderground v.1.15,2013-02-13 11:22:00,
2013-02-13 03:24:00,43.8,41.3,30.35,NNW,341,0.0,-999.0,91,0.00,,,0.00,0,Wunderground v.1.15,2013-02-13 11:24:00,
2013-02-13 03:25:00,43.8,41.3,30.35,West,276,0.0,-999.0,91,0.00,,,0.00,0,Wunderground v.1.15,2013-02-13 11:25:00,
2013-02-13 03:26:00,43.8,41.3,30.35,West,276,1.0,-999.0,91,0.00,,,0.00,0,Wunderground v.1.15,2013-02-13 11:26:00,
2013-02-13 03:27:00,43.8,41.3,30.35,West,276,2.0,-999.0,91,0.00,,,0.00,0,Wunderground v.1.15,2013-02-13 11:27:00,
2013-02-13 03:30:00,43.8,41.3,30.35,West,276,0.0,-999.0,91,0.00,,,0.00,0,Wunderground v.1.15,2013-02-13 11:30:00,
2013-02-13 03:32:00,43.8,41.3,30.35,WNW,282,0.0,-999.0,91,0.00,,,0.00,0,Wunderground v.1.15,2013-02-13 11:32:00,
2013-02-13 03:35:00,43.8,41.3,30.35,NNW,340,0.0,-999.0,91,0.00,,,0.00,0,Wunderground v.1.15,2013-02-13 11:35:00,
2013-02-13 03:37:00,43.8,41.3,30.35,NNW,340,1.0,-999.0,91,0.00,,,0.00,0,Wunderground v.1.15,2013-02-13 11:37:00,
2013-02-13 03:38:00,43.8,41.3,30.35,NNW,347,2.0,-999.0,91,0.00,,,0.00,0,Wunderground v.1.15,2013-02-13 11:38:00,
2013-02-13 03:40:00,43.8,41.1,30.35,North,8,0.0,-999.0,90,0.00,,,0.00,0,Wunderground v.1.15,2013-02-13 11:40:00,
2013-02-13 03:42:00,43.9,41.2,30.35,SE,124,0.0,-999.0,90,0.00,,,0.00,0,Wunderground v.1.15,2013-02-13 11:42:00,
2013-02-13 03:43:00,43.8,41.1,30.35,SE,124,0.0,-999.0,90,0.00,,,0.00,0,Wunderground v.1.15,2013-02-13 11:43:00,
2013-02-13 03:45:00,43.9,41.4,30.35,SE,124,0.0,-999.0,91,0.00,,,0.00,0,Wunderground v.1.15,2013-02-13 11:45:00,
2013-02-13 03:47:00,43.9,41.4,30.35,WNW,303,1.0,-999.0,91,0.00,,,0.00,0,Wunderground v.1.15,2013-02-13 11:47:00,
2013-02-13 03:49:00,43.9,41.4,30.35,WNW,303,0.0,-999.0,91,0.00,,,0.00,0,Wunderground v.1.15,2013-02-13 11:49:00,
2013-02-13 03:50:00,43.8,41.3,30.35,WNW,292,1.0,-999.0,91,0.00,,,0.00,0,Wunderground v.1.15,2013-02-13 11:50:00,
2013-02-13 03:52:00,43.8,41.1,30.35,NNW,328,1.0,-999.0,90,0.00,,,0.00,0,Wunderground v.1.15,2013-02-13 11:52:00,
2013-02-13 03:54:00,43.8,41.1,30.35,NNW,328,0.0,-999.0,90,0.00,,,0.00,0,Wunderground v.1.15,2013-02-13 11:54:00,
2013-02-13 03:55:00,43.8,41.1,30.35,NNW,328,0.0,-999.0,90,0.00,,,0.00,0,Wunderground v.1.15,2013-02-13 11:55:00,
2013-02-13 03:57:00,43.8,41.1,30.35,NNW,328,1.0,-999.0,90,0.00,,,0.00,0,Wunderground v.1.15,2013-02-13 11:57:00,
2013-02-13 03:59:00,43.8,41.1,30.35,NNW,340,1.0,-999.0,90,0.00,,,0.00,0,Wunderground v.1.15,2013-02-13 11:59:00,
2013-02-13 04:01:00,43.8,41.1,30.35,NNW,341,0.0,-999.0,90,0.00,,,0.00,0,Wunderground v.1.15,2013-02-13 12:01:00,
2013-02-13 04:02:00,43.8,41.1,30.35,NNW,341,0.0,-999.0,90,0.00,,,0.00,0,Wunderground v.1.15,2013-02-13 12:02:00,
2013-02-13 04:03:00,43.8,41.1,30.35,NNW,341,0.0,-999.0,90,0.00,,,0.00,0,Wunderground v.1.15,2013-02-13 12:03:00,
2013-02-13 04:04:00,43.8,41.1,30.35,NNW,341,0.0,-999.0,90,0.00,,,0.00,0,Wunderground v.1.15,2013-02-13 12:04:00,
2013-02-13 04:06:00,43.8,41.1,30.35,NNW,341,0.0,-999.0,90,0.00,,,0.00,0,Wunderground v.1.15,2013-02-13 12:06:00,
2013-02-13 04:08:00,43.8,41.1,30.35,NNW,341,1.0,-999.0,90,0.00,,,0.00,0,Wunderground v.1.15,2013-02-13 12:08:00,
2013-02-13 04:09:00,43.8,41.1,30.35,NNW,341,0.0,-999.0,90,0.00,,,0.00,0,Wunderground v.1.15,2013-02-13 12:09:00,
2013-02-13 04:11:00,43.8,41.1,30.35,NNW,341,0.0,-999.0,90,0.00,,,0.00,0,Wunderground v.1.15,2013-02-13 12:11:00,
2013-02-13 04:13:00,43.8,41.1,30.35,NNW,341,0.0,-999.0,90,0.00,,,0.00,0,Wunderground v.1.15,2013-02-13 12:13:00,
2013-02-13 04:15:00,43.8,41.1,30.35,NNW,341,0.0,-999.0,90,0.00,,,0.00,0,Wunderground v.1.15,2013-02-13 12:15:00,
2013-02-13 04:16:00,43.8,41.3,30.36,NNW,341,0.0,-999.0,91,0.00,,,0.00,0,Wunderground v.1.15,2013-02-13 12:16:00,
2013-02-13 04:19:00,43.7,41.2,30.36,NNW,341,0.0,-999.0,91,0.00,,,0.00,0,Wunderground v.1.15,2013-02-13 12:19:00,
2013-02-13 04:20:00,43.7,41.2,30.36,NNW,341,0.0,-999.0,91,0.00,,,0.00,0,Wunderground v.1.15,2013-02-13 12:20:00,
2013-02-13 04:21:00,43.7,41.2,30.36,NNW,341,0.0,-999.0,91,0.00,,,0.00,0,Wunderground v.1.15,2013-02-13 12:21:00,
2013-02-13 04:24:00,43.7,41.2,30.36,NNW,341,0.0,-999.0,91,0.00,,,0.00,0,Wunderground v.1.15,2013-02-13 12:24:00,
2013-02-13 04:25:00,43.7,41.0,30.36,NNW,347,6.0,-999.0,90,0.00,,,0.00,0,Wunderground v.1.15,2013-02-13 12:25:00,
2013-02-13 04:26:00,43.5,40.8,30.36,NW,316,0.0,-999.0,90,0.00,,,0.00,0,Wunderground v.1.15,2013-02-13 12:26:00,
2013-02-13 04:29:00,43.5,40.8,30.36,NW,316,0.0,-999.0,90,0.00,,,0.00,0,Wunderground v.1.15,2013-02-13 12:29:00,
2013-02-13 04:30:00,43.5,40.8,30.36,NW,316,0.0,-999.0,90,0.00,,,0.00,0,Wunderground v.1.15,2013-02-13 12:30:00,
2013-02-13 04:32:00,43.5,40.8,30.36,NW,316,0.0,-999.0,90,0.00,,,0.00,0,Wunderground v.1.15,2013-02-13 12:32:00,
2013-02-13 04:34:00,43.5,40.8,30.36,NW,316,0.0,-999.0,90,0.00,,,0.00,0,Wunderground v.1.15,2013-02-13 12:34:00,
2013-02-13 04:35:00,43.5,40.8,30.36,NW,316,0.0,-999.0,90,0.00,,,0.00,0,Wunderground v.1.15,2013-02-13 12:35:00,
2013-02-13 04:37:00,43.4,40.7,30.36,NW,316,0.0,-999.0,90,0.00,,,0.00,0,Wunderground v.1.15,2013-02-13 12:37:00,
2013-02-13 04:40:00,43.4,40.7,30.36,NW,316,0.0,-999.0,90,0.00,,,0.00,0,Wunderground v.1.15,2013-02-13 12:40:00,
2013-02-13 04:42:00,43.4,40.7,30.36,NW,316,0.0,-999.0,90,0.00,,,0.00,0,Wunderground v.1.15,2013-02-13 12:42:00,
2013-02-13 04:45:00,43.2,40.5,30.36,NW,316,0.0,-999.0,90,0.00,,,0.00,0,Wunderground v.1.15,2013-02-13 12:45:00,
2013-02-13 04:46:00,43.2,40.2,30.36,NW,316,0.0,-999.0,89,0.00,,,0.00,0,Wunderground v.1.15,2013-02-13 12:46:00,
2013-02-13 04:47:00,43.2,40.2,30.36,NW,316,1.0,-999.0,89,0.00,,,0.00,0,Wunderground v.1.15,2013-02-13 12:47:00,
2013-02-13 04:50:00,43.1,40.4,30.36,NW,316,0.0,-999.0,90,0.00,,,0.00,0,Wunderground v.1.15,2013-02-13 12:50:00,
2013-02-13 04:51:00,43.1,40.4,30.36,NW,316,1.0,-999.0,90,0.00,,,0.00,0,Wunderground v.1.15,2013-02-13 12:51:00,
2013-02-13 04:52:00,43.1,40.4,30.36,NW,316,0.0,-999.0,90,0.00,,,0.00,0,Wunderground v.1.15,2013-02-13 12:52:00,
2013-02-13 04:55:00,43.1,40.7,30.36,NW,316,0.0,-999.0,91,0.00,,,0.00,0,Wunderground v.1.15,2013-02-13 12:55:00,
2013-02-13 04:56:00,42.9,40.5,30.36,NW,316,1.0,-999.0,91,0.00,,,0.00,0,Wunderground v.1.15,2013-02-13 12:56:00,
2013-02-13 04:58:00,42.9,40.5,30.36,NW,316,1.0,-999.0,91,0.00,,,0.00,0,Wunderground v.1.15,2013-02-13 12:58:00,
2013-02-13 05:00:00,42.9,40.5,30.36,NW,316,0.0,-999.0,91,0.00,,,0.00,0,Wunderground v.1.15,2013-02-13 13:00:00,
2013-02-13 05:01:00,42.9,40.5,30.37,NW,316,0.0,-999.0,91,0.00,,,0.00,0,Wunderground v.1.15,2013-02-13 13:01:00,
2013-02-13 05:02:00,42.9,40.5,30.37,NW,316,0.0,-999.0,91,0.00,,,0.00,0,Wunderground v.1.15,2013-02-13 13:02:00,
2013-02-13 05:03:00,42.9,40.5,30.37,NW,316,0.0,-999.0,91,0.00,,,0.00,0,Wunderground v.1.15,2013-02-13 13:03:00,
2013-02-13 05:05:00,42.9,40.5,30.37,NW,316,0.0,-999.0,91,0.00,,,0.00,0,Wunderground v.1.15,2013-02-13 13:05:00,
2013-02-13 05:06:00,42.9,40.5,30.37,NW,316,0.0,-999.0,91,0.00,,,0.00,0,Wunderground v.1.15,2013-02-13 13:06:00,
2013-02-13 05:07:00,42.9,40.5,30.37,NW,316,0.0,-999.0,91,0.00,,,0.00,0,Wunderground v.1.15,2013-02-13 13:07:00,
2013-02-13 05:09:00,42.9,40.5,30.37,NW,316,0.0,-999.0,91,0.00,,,0.00,0,Wunderground v.1.15,2013-02-13 13:09:00,
2013-02-13 05:10:00,42.9,40.5,30.37,NW,316,0.0,-999.0,91,0.00,,,0.00,0,Wunderground v.1.15,2013-02-13 13:10:00,
2013-02-13 05:11:00,42.9,40.5,30.37,NW,316,0.0,-999.0,91,0.00,,,0.00,0,Wunderground v.1.15,2013-02-13 13:11:00,
2013-02-13 05:12:00,42.9,40.5,30.37,NW,316,0.0,-999.0,91,0.00,,,0.00,0,Wunderground v.1.15,2013-02-13 13:12:00,
2013-02-13 05:14:00,42.9,40.5,30.37,NW,316,0.0,-999.0,91,0.00,,,0.00,0,Wunderground v.1.15,2013-02-13 13:14:00,
2013-02-13 05:15:00,42.9,40.5,30.38,NW,316,0.0,-999.0,91,0.00,,,0.00,0,Wunderground v.1.15,2013-02-13 13:15:00,
2013-02-13 05:16:00,42.8,40.4,30.38,NW,316,0.0,-999.0,91,0.00,,,0.00,0,Wunderground v.1.15,2013-02-13 13:16:00,
2013-02-13 05:17:00,42.8,40.4,30.38,NW,316,0.0,-999.0,91,0.00,,,0.00,0,Wunderground v.1.15,2013-02-13 13:17:00,
2013-02-13 05:19:00,42.8,40.4,30.38,NW,316,0.0,-999.0,91,0.00,,,0.00,0,Wunderground v.1.15,2013-02-13 13:19:00,
2013-02-13 05:20:00,42.8,40.4,30.38,NW,316,0.0,-999.0,91,0.00,,,0.00,0,Wunderground v.1.15,2013-02-13 13:20:00,
2013-02-13 05:21:00,42.8,40.4,30.38,NW,316,0.0,-999.0,91,0.00,,,0.00,0,Wunderground v.1.15,2013-02-13 13:21:00,
2013-02-13 05:22:00,42.8,40.4,30.38,NW,316,0.0,-999.0,91,0.00,,,0.00,0,Wunderground v.1.15,2013-02-13 13:22:00,
2013-02-13 05:24:00,42.8,40.4,30.38,NW,316,0.0,-999.0,91,0.00,,,0.00,0,Wunderground v.1.15,2013-02-13 13:24:00,
2013-02-13 05:25:00,42.8,40.4,30.38,NW,316,0.0,-999.0,91,0.00,,,0.00,0,Wunderground v.1.15,2013-02-13 13:25:00,
2013-02-13 05:27:00,42.8,40.4,30.38,NW,316,0.0,-999.0,91,0.00,,,0.00,0,Wunderground v.1.15,2013-02-13 13:27:00,
2013-02-13 05:29:00,42.7,40.3,30.38,NW,316,0.0,-999.0,91,0.00,,,0.00,0,Wunderground v.1.15,2013-02-13 13:29:00,
2013-02-13 05:31:00,42.7,40.3,30.38,NW,316,0.0,-999.0,91,0.00,,,0.00,0,Wunderground v.1.15,2013-02-13 13:31:00,
2013-02-13 05:32:00,42.7,40.3,30.38,NW,316,0.0,-999.0,91,0.00,,,0.00,0,Wunderground v.1.15,2013-02-13 13:32:00,
2013-02-13 05:33:00,42.7,40.3,30.38,NW,316,0.0,-999.0,91,0.00,,,0.00,0,Wunderground v.1.15,2013-02-13 13:33:00,
2013-02-13 05:34:00,42.7,40.3,30.38,NW,316,0.0,-999.0,91,0.00,,,0.00,0,Wunderground v.1.15,2013-02-13 13:34:00,
2013-02-13 05:36:00,42.7,40.3,30.38,NW,316,0.0,-999.0,91,0.00,,,0.00,0,Wunderground v.1.15,2013-02-13 13:36:00,
2013-02-13 05:37:00,42.7,40.3,30.38,NW,316,0.0,-999.0,91,0.00,,,0.00,0,Wunderground v.1.15,2013-02-13 13:37:00,
2013-02-13 05:38:00,42.5,40.1,30.38,NW,316,0.0,-999.0,91,0.00,,,0.00,0,Wunderground v.1.15,2013-02-13 13:38:00,
2013-02-13 05:39:00,42.5,40.1,30.38,NW,316,0.0,-999.0,91,0.00,,,0.00,0,Wunderground v.1.15,2013-02-13 13:39:00,
2013-02-13 05:41:00,42.5,40.1,30.38,NW,316,0.0,-999.0,91,0.00,,,0.00,0,Wunderground v.1.15,2013-02-13 13:41:00,
2013-02-13 05:42:00,42.5,40.1,30.38,NW,316,0.0,-999.0,91,0.00,,,0.00,0,Wunderground v.1.15,2013-02-13 13:42:00,
2013-02-13 05:43:00,42.5,40.1,30.38,NW,316,0.0,-999.0,91,0.00,,,0.00,0,Wunderground v.1.15,2013-02-13 13:43:00,
2013-02-13 05:45:00,42.5,40.1,30.38,NW,316,0.0,-999.0,91,0.00,,,0.00,0,Wunderground v.1.15,2013-02-13 13:45:00,
2013-02-13 05:46:00,42.4,40.0,30.38,NW,316,0.0,-999.0,91,0.00,,,0.00,0,Wunderground v.1.15,2013-02-13 13:46:00,
2013-02-13 05:47:00,42.4,40.0,30.38,NW,316,0.0,-999.0,91,0.00,,,0.00,0,Wunderground v.1.15,2013-02-13 13:47:00,
2013-02-13 05:49:00,42.4,40.0,30.38,NW,316,0.0,-999.0,91,0.00,,,0.00,0,Wunderground v.1.15,2013-02-13 13:49:00,
2013-02-13 05:50:00,42.4,40.0,30.38,NW,316,0.0,-999.0,91,0.00,,,0.00,0,Wunderground v.1.15,2013-02-13 13:50:00,
2013-02-13 05:51:00,42.4,40.0,30.38,NW,316,0.0,-999.0,91,0.00,,,0.00,0,Wunderground v.1.15,2013-02-13 13:51:00,
2013-02-13 05:52:00,42.4,40.0,30.38,NW,316,0.0,-999.0,91,0.00,,,0.00,0,Wunderground v.1.15,2013-02-13 13:52:00,
2013-02-13 05:54:00,42.4,40.0,30.38,NW,316,0.0,-999.0,91,0.00,,,0.00,0,Wunderground v.1.15,2013-02-13 13:54:00,
2013-02-13 05:55:00,42.4,40.0,30.38,NW,316,0.0,-999.0,91,0.00,,,0.00,0,Wunderground v.1.15,2013-02-13 13:55:00,
2013-02-13 05:57:00,42.4,40.0,30.38,NW,316,0.0,-999.0,91,0.00,,,0.00,0,Wunderground v.1.15,2013-02-13 13:57:00,
2013-02-13 05:59:00,42.4,40.0,30.38,NW,316,0.0,-999.0,91,0.00,,,0.00,0,Wunderground v.1.15,2013-02-13 13:59:00,
2013-02-13 06:01:00,42.4,40.0,30.38,NW,316,0.0,-999.0,91,0.00,,,0.00,0,Wunderground v.1.15,2013-02-13 14:01:00,
2013-02-13 06:02:00,42.4,40.0,30.38,NW,316,0.0,-999.0,91,0.00,,,0.00,0,Wunderground v.1.15,2013-02-13 14:02:00,
2013-02-13 06:04:00,42.4,40.0,30.38,NW,316,0.0,-999.0,91,0.00,,,0.00,0,Wunderground v.1.15,2013-02-13 14:04:00,
2013-02-13 06:06:00,42.4,40.0,30.38,NW,316,0.0,-999.0,91,0.00,,,0.00,0,Wunderground v.1.15,2013-02-13 14:06:00,
2013-02-13 06:07:00,42.4,40.0,30.38,NW,316,0.0,-999.0,91,0.00,,,0.00,0,Wunderground v.1.15,2013-02-13 14:07:00,
2013-02-13 06:10:00,42.2,39.8,30.38,NW,316,0.0,-999.0,91,0.00,,,0.00,0,Wunderground v.1.15,2013-02-13 14:10:00,
2013-02-13 06:11:00,42.2,39.8,30.38,NW,316,0.0,-999.0,91,0.00,,,0.00,0,Wunderground v.1.15,2013-02-13 14:11:00,
2013-02-13 06:12:00,42.2,39.8,30.38,NW,316,0.0,-999.0,91,0.00,,,0.00,0,Wunderground v.1.15,2013-02-13 14:12:00,
2013-02-13 06:13:00,42.2,39.8,30.38,NW,316,0.0,-999.0,91,0.00,,,0.00,0,Wunderground v.1.15,2013-02-13 14:13:00,
2013-02-13 06:15:00,42.2,39.8,30.38,NW,316,0.0,-999.0,91,0.00,,,0.00,0,Wunderground v.1.15,2013-02-13 14:15:00,
2013-02-13 06:16:00,42.2,39.8,30.38,NW,316,0.0,-999.0,91,0.00,,,0.00,0,Wunderground v.1.15,2013-02-13 14:16:00,
2013-02-13 06:18:00,42.2,39.8,30.38,NW,316,0.0,-999.0,91,0.00,,,0.00,0,Wunderground v.1.15,2013-02-13 14:18:00,
2013-02-13 06:20:00,42.2,39.8,30.38,NW,316,0.0,-999.0,91,0.00,,,0.00,0,Wunderground v.1.15,2013-02-13 14:20:00,
2013-02-13 06:21:00,42.2,39.8,30.38,NW,316,0.0,-999.0,91,0.00,,,0.00,0,Wunderground v.1.15,2013-02-13 14:21:00,
2013-02-13 06:23:00,42.2,39.8,30.38,NW,316,0.0,-999.0,91,0.00,,,0.00,0,Wunderground v.1.15,2013-02-13 14:23:00,
2013-02-13 06:25:00,42.1,39.7,30.38,NW,311,0.0,-999.0,91,0.00,,,0.00,0,Wunderground v.1.15,2013-02-13 14:25:00,
2013-02-13 06:26:00,42.1,39.7,30.38,NW,316,0.0,-999.0,91,0.00,,,0.00,0,Wunderground v.1.15,2013-02-13 14:26:00,
2013-02-13 06:28:00,42.1,39.7,30.38,NW,316,0.0,-999.0,91,0.00,,,0.00,0,Wunderground v.1.15,2013-02-13 14:28:00,
2013-02-13 06:30:00,42.1,39.7,30.39,NW,316,0.0,-999.0,91,0.00,,,0.00,0,Wunderground v.1.15,2013-02-13 14:30:00,
2013-02-13 06:31:00,42.1,39.7,30.39,NW,316,0.0,-999.0,91,0.00,,,0.00,0,Wunderground v.1.15,2013-02-13 14:31:00,
2013-02-13 06:33:00,42.1,39.7,30.39,NW,316,0.0,-999.0,91,0.00,,,0.00,0,Wunderground v.1.15,2013-02-13 14:33:00,
2013-02-13 06:35:00,42.1,39.7,30.39,NW,316,0.0,-999.0,91,0.00,,,0.00,0,Wunderground v.1.15,2013-02-13 14:35:00,
2013-02-13 06:36:00,42.1,39.7,30.39,NW,316,0.0,-999.0,91,0.00,,,0.00,0,Wunderground v.1.15,2013-02-13 14:36:00,
2013-02-13 06:38:00,42.1,39.7,30.39,NW,316,0.0,-999.0,91,0.00,,,0.00,0,Wunderground v.1.15,2013-02-13 14:38:00,
2013-02-13 06:39:00,42.1,39.7,30.39,NW,316,0.0,-999.0,91,0.00,,,0.00,0,Wunderground v.1.15,2013-02-13 14:39:00,
2013-02-13 06:40:00,42.1,39.7,30.39,NW,316,0.0,-999.0,91,0.00,,,0.00,0,Wunderground v.1.15,2013-02-13 14:40:00,
2013-02-13 06:41:00,42.1,39.7,30.39,NW,316,0.0,-999.0,91,0.00,,,0.00,0,Wunderground v.1.15,2013-02-13 14:41:00,
2013-02-13 06:43:00,42.1,39.7,30.39,NW,316,0.0,-999.0,91,0.00,,,0.00,0,Wunderground v.1.15,2013-02-13 14:43:00,
2013-02-13 06:44:00,42.1,39.7,30.39,NW,316,0.0,-999.0,91,0.00,,,0.00,0,Wunderground v.1.15,2013-02-13 14:44:00,
2013-02-13 06:46:00,42.1,39.7,30.39,NW,316,0.0,-999.0,91,0.00,,,0.00,0,Wunderground v.1.15,2013-02-13 14:46:00,
2013-02-13 06:47:00,42.1,39.7,30.39,NW,316,0.0,-999.0,91,0.00,,,0.00,0,Wunderground v.1.15,2013-02-13 14:47:00,
2013-02-13 06:48:00,42.1,39.7,30.39,NW,316,0.0,-999.0,91,0.00,,,0.00,0,Wunderground v.1.15,2013-02-13 14:48:00,
2013-02-13 06:49:00,42.1,39.7,30.39,NW,316,0.0,-999.0,91,0.00,,,0.00,0,Wunderground v.1.15,2013-02-13 14:49:00,
2013-02-13 06:51:00,42.1,39.7,30.39,NW,316,0.0,-999.0,91,0.00,,,0.00,0,Wunderground v.1.15,2013-02-13 14:51:00,
2013-02-13 06:52:00,42.1,39.7,30.39,NW,316,0.0,-999.0,91,0.00,,,0.00,0,Wunderground v.1.15,2013-02-13 14:52:00,
2013-02-13 06:54:00,42.1,39.7,30.39,NW,316,0.0,-999.0,91,0.00,,,0.00,0,Wunderground v.1.15,2013-02-13 14:54:00,
2013-02-13 06:56:00,42.1,39.7,30.39,NW,316,0.0,-999.0,91,0.00,,,0.00,0,Wunderground v.1.15,2013-02-13 14:56:00,
2013-02-13 06:57:00,42.1,39.7,30.39,NW,316,0.0,-999.0,91,0.00,,,0.00,0,Wunderground v.1.15,2013-02-13 14:57:00,
2013-02-13 06:59:00,42.1,39.7,30.39,NW,316,0.0,-999.0,91,0.00,,,0.00,0,Wunderground v.1.15,2013-02-13 14:59:00,
2013-02-13 07:01:00,42.1,39.7,30.39,NW,316,0.0,-999.0,91,0.00,,,0.00,0,Wunderground v.1.15,2013-02-13 15:01:00,
2013-02-13 07:02:00,42.1,39.7,30.39,NW,316,0.0,-999.0,91,0.00,,,0.00,0,Wunderground v.1.15,2013-02-13 15:02:00,
2013-02-13 07:04:00,42.1,39.7,30.39,NW,316,0.0,-999.0,91,0.00,,,0.00,0,Wunderground v.1.15,2013-02-13 15:04:00,
2013-02-13 07:05:00,42.1,39.7,30.39,NW,316,0.0,-999.0,91,0.00,,,0.00,0,Wunderground v.1.15,2013-02-13 15:05:00,
2013-02-13 07:06:00,42.1,39.7,30.39,NW,316,0.0,-999.0,91,0.00,,,0.00,0,Wunderground v.1.15,2013-02-13 15:06:00,
2013-02-13 07:07:00,42.2,39.8,30.39,NW,316,0.0,-999.0,91,0.00,,,0.00,0,Wunderground v.1.15,2013-02-13 15:07:00,
2013-02-13 07:10:00,42.2,39.8,30.39,NW,316,0.0,-999.0,91,0.00,,,0.00,0,Wunderground v.1.15,2013-02-13 15:10:00,
2013-02-13 07:11:00,42.2,39.8,30.39,NW,316,0.0,-999.0,91,0.00,,,0.00,0,Wunderground v.1.15,2013-02-13 15:11:00,
2013-02-13 07:12:00,42.2,39.8,30.39,NW,316,0.0,-999.0,91,0.00,,,0.00,0,Wunderground v.1.15,2013-02-13 15:12:00,
2013-02-13 07:15:00,42.2,39.8,30.39,NW,316,0.0,-999.0,91,0.00,,,0.00,0,Wunderground v.1.15,2013-02-13 15:15:00,
2013-02-13 07:16:00,42.2,39.8,30.40,NW,316,0.0,-999.0,91,0.00,,,0.00,0,Wunderground v.1.15,2013-02-13 15:16:00,
2013-02-13 07:17:00,42.2,39.8,30.40,NW,316,0.0,-999.0,91,0.00,,,0.00,0,Wunderground v.1.15,2013-02-13 15:17:00,
2013-02-13 07:20:00,42.2,39.8,30.40,NW,316,0.0,-999.0,91,0.00,,,0.00,0,Wunderground v.1.15,2013-02-13 15:20:00,
2013-02-13 07:21:00,42.2,39.8,30.40,NW,316,0.0,-999.0,91,0.00,,,0.00,0,Wunderground v.1.15,2013-02-13 15:21:00,
2013-02-13 07:22:00,42.2,39.8,30.40,NW,316,0.0,-999.0,91,0.00,,,0.00,0,Wunderground v.1.15,2013-02-13 15:22:00,
2013-02-13 07:23:00,42.2,39.8,30.40,NW,316,0.0,-999.0,91,0.00,,,0.00,0,Wunderground v.1.15,2013-02-13 15:23:00,
2013-02-13 07:25:00,42.2,39.8,30.40,NW,316,0.0,-999.0,91,0.00,,,0.00,0,Wunderground v.1.15,2013-02-13 15:25:00,
2013-02-13 07:26:00,42.2,39.8,30.40,NW,316,0.0,-999.0,91,0.00,,,0.00,0,Wunderground v.1.15,2013-02-13 15:26:00,
2013-02-13 07:27:00,42.2,39.8,30.40,NW,316,0.0,-999.0,91,0.00,,,0.00,0,Wunderground v.1.15,2013-02-13 15:27:00,
2013-02-13 07:28:00,42.2,39.8,30.40,NW,316,0.0,-999.0,91,0.00,,,0.00,0,Wunderground v.1.15,2013-02-13 15:28:00,
2013-02-13 07:30:00,42.2,39.8,30.40,NW,316,0.0,-999.0,91,0.00,,,0.00,0,Wunderground v.1.15,2013-02-13 15:30:00,
2013-02-13 07:31:00,42.2,39.8,30.40,NW,316,0.0,-999.0,91,0.00,,,0.00,0,Wunderground v.1.15,2013-02-13 15:31:00,
2013-02-13 07:32:00,42.2,39.8,30.40,NW,311,0.0,-999.0,91,0.00,,,0.00,0,Wunderground v.1.15,2013-02-13 15:32:00,
2013-02-13 07:33:00,42.2,39.8,30.40,NW,316,0.0,-999.0,91,0.00,,,0.00,0,Wunderground v.1.15,2013-02-13 15:33:00,
2013-02-13 07:35:00,42.2,39.8,30.40,NW,316,0.0,-999.0,91,0.00,,,0.00,0,Wunderground v.1.15,2013-02-13 15:35:00,
2013-02-13 07:36:00,42.2,39.8,30.40,NW,316,0.0,-999.0,91,0.00,,,0.00,0,Wunderground v.1.15,2013-02-13 15:36:00,
2013-02-13 07:38:00,42.2,39.8,30.40,NW,316,0.0,-999.0,91,0.00,,,0.00,0,Wunderground v.1.15,2013-02-13 15:38:00,
2013-02-13 07:40:00,42.2,39.8,30.40,NW,316,0.0,-999.0,91,0.00,,,0.00,0,Wunderground v.1.15,2013-02-13 15:40:00,
2013-02-13 07:41:00,42.2,39.8,30.40,NW,316,0.0,-999.0,91,0.00,,,0.00,0,Wunderground v.1.15,2013-02-13 15:41:00,
2013-02-13 07:43:00,42.2,39.8,30.40,NW,316,0.0,-999.0,91,0.00,,,0.00,0,Wunderground v.1.15,2013-02-13 15:43:00,
2013-02-13 07:46:00,42.2,39.8,30.41,NW,316,0.0,-999.0,91,0.00,,,0.00,0,Wunderground v.1.15,2013-02-13 15:46:00,
2013-02-13 07:48:00,42.4,40.0,30.41,NW,310,0.0,-999.0,91,0.00,,,0.00,0,Wunderground v.1.15,2013-02-13 15:48:00,
2013-02-13 07:49:00,42.4,40.0,30.41,NW,316,0.0,-999.0,91,0.00,,,0.00,0,Wunderground v.1.15,2013-02-13 15:49:00,
2013-02-13 07:51:00,42.4,40.0,30.41,NW,316,0.0,-999.0,91,0.00,,,0.00,0,Wunderground v.1.15,2013-02-13 15:51:00,
2013-02-13 07:54:00,42.4,40.0,30.41,NW,316,0.0,-999.0,91,0.00,,,0.00,5,Wunderground v.1.15,2013-02-13 15:54:00,
2013-02-13 07:56:00,42.4,40.0,30.41,NW,316,0.0,-999.0,91,0.00,,,0.00,5,Wunderground v.1.15,2013-02-13 15:56:00,
2013-02-13 07:59:00,42.4,40.0,30.41,NW,316,0.0,-999.0,91,0.00,,,0.00,7,Wunderground v.1.15,2013-02-13 15:59:00,
2013-02-13 08:00:00,42.4,40.0,30.41,NW,316,0.0,-999.0,91,0.00,,,0.00,7,Wunderground v.1.15,2013-02-13 16:00:00,
2013-02-13 08:01:00,42.4,40.0,30.41,NW,316,0.0,-999.0,91,0.00,,,0.00,5,Wunderground v.1.15,2013-02-13 16:01:00,
2013-02-13 08:04:00,42.4,40.0,30.41,NW,316,0.0,-999.0,91,0.00,,,0.00,5,Wunderground v.1.15,2013-02-13 16:04:00,
2013-02-13 08:05:00,42.4,40.0,30.41,NW,316,0.0,-999.0,91,0.00,,,0.00,5,Wunderground v.1.15,2013-02-13 16:05:00,
2013-02-13 08:06:00,42.4,40.0,30.41,NW,316,0.0,-999.0,91,0.00,,,0.00,5,Wunderground v.1.15,2013-02-13 16:06:00,
2013-02-13 08:10:00,42.4,40.0,30.41,NW,316,0.0,-999.0,91,0.00,,,0.00,7,Wunderground v.1.15,2013-02-13 16:10:00,
2013-02-13 08:11:00,42.4,40.0,30.41,NW,316,0.0,-999.0,91,0.00,,,0.00,7,Wunderground v.1.15,2013-02-13 16:11:00,
2013-02-13 08:12:00,42.4,40.0,30.41,NW,316,0.0,-999.0,91,0.00,,,0.00,7,Wunderground v.1.15,2013-02-13 16:12:00,
2013-02-13 08:15:00,42.4,40.0,30.41,NW,316,0.0,-999.0,91,0.00,,,0.00,11,Wunderground v.1.15,2013-02-13 16:15:00,
2013-02-13 08:17:00,42.4,40.0,30.42,NW,316,0.0,-999.0,91,0.00,,,0.00,11,Wunderground v.1.15,2013-02-13 16:17:00,
2013-02-13 08:20:00,42.4,40.0,30.42,NW,316,0.0,-999.0,91,0.00,,,0.00,12,Wunderground v.1.15,2013-02-13 16:20:00,
2013-02-13 08:22:00,42.4,40.0,30.42,NW,316,0.0,-999.0,91,0.00,,,0.00,12,Wunderground v.1.15,2013-02-13 16:22:00,
2013-02-13 08:25:00,42.5,40.1,30.42,NW,316,0.0,-999.0,91,0.00,,,0.00,12,Wunderground v.1.15,2013-02-13 16:25:00,
2013-02-13 08:26:00,42.5,40.1,30.42,NW,316,0.0,-999.0,91,0.00,,,0.00,16,Wunderground v.1.15,2013-02-13 16:26:00,
2013-02-13 08:27:00,42.5,40.1,30.42,NW,316,0.0,-999.0,91,0.00,,,0.00,16,Wunderground v.1.15,2013-02-13 16:27:00,
2013-02-13 08:28:00,42.5,40.1,30.42,NW,316,0.0,-999.0,91,0.00,,,0.00,16,Wunderground v.1.15,2013-02-13 16:28:00,
2013-02-13 08:30:00,42.5,40.1,30.42,NW,316,0.0,-999.0,91,0.00,,,0.00,16,Wunderground v.1.15,2013-02-13 16:30:00,
2013-02-13 08:31:00,42.5,40.1,30.42,NW,316,0.0,-999.0,91,0.00,,,0.00,12,Wunderground v.1.15,2013-02-13 16:31:00,
2013-02-13 08:32:00,42.5,40.1,30.42,NW,316,0.0,-999.0,91,0.00,,,0.00,12,Wunderground v.1.15,2013-02-13 16:32:00,
2013-02-13 08:33:00,42.5,40.1,30.42,NW,316,0.0,-999.0,91,0.00,,,0.00,12,Wunderground v.1.15,2013-02-13 16:33:00,
2013-02-13 08:35:00,42.5,40.1,30.42,NW,316,0.0,-999.0,91,0.00,,,0.00,14,Wunderground v.1.15,2013-02-13 16:35:00,
2013-02-13 08:37:00,42.5,40.1,30.42,NW,316,0.0,-999.0,91,0.00,,,0.00,14,Wunderground v.1.15,2013-02-13 16:37:00,
2013-02-13 08:39:00,42.7,40.3,30.42,NW,316,0.0,-999.0,91,0.00,,,0.00,16,Wunderground v.1.15,2013-02-13 16:39:00,
2013-02-13 08:40:00,42.7,40.3,30.42,NW,316,0.0,-999.0,91,0.00,,,0.00,16,Wunderground v.1.15,2013-02-13 16:40:00,
2013-02-13 08:42:00,42.7,40.3,30.42,NW,316,0.0,-999.0,91,0.00,,,0.00,16,Wunderground v.1.15,2013-02-13 16:42:00,
2013-02-13 08:43:00,42.7,40.3,30.42,NW,316,0.0,-999.0,91,0.00,,,0.00,19,Wunderground v.1.15,2013-02-13 16:43:00,
2013-02-13 08:44:00,42.7,40.3,30.42,NW,316,0.0,-999.0,91,0.00,,,0.00,19,Wunderground v.1.15,2013-02-13 16:44:00,
2013-02-13 08:45:00,42.7,40.3,30.42,NW,316,0.0,-999.0,91,0.00,,,0.00,19,Wunderground v.1.15,2013-02-13 16:45:00,
2013-02-13 08:47:00,42.7,40.3,30.42,NW,316,0.0,-999.0,91,0.00,,,0.00,21,Wunderground v.1.15,2013-02-13 16:47:00,
2013-02-13 08:48:00,42.7,40.3,30.42,NW,316,0.0,-999.0,91,0.00,,,0.00,21,Wunderground v.1.15,2013-02-13 16:48:00,
2013-02-13 08:49:00,42.7,40.3,30.42,NW,316,0.0,-999.0,91,0.00,,,0.00,21,Wunderground v.1.15,2013-02-13 16:49:00,
2013-02-13 08:50:00,42.8,40.4,30.42,NW,316,0.0,-999.0,91,0.00,,,0.00,21,Wunderground v.1.15,2013-02-13 16:50:00,
2013-02-13 08:52:00,42.8,40.4,30.42,NW,316,0.0,-999.0,91,0.00,,,0.00,33,Wunderground v.1.15,2013-02-13 16:52:00,
2013-02-13 08:54:00,42.8,40.4,30.42,NW,316,0.0,-999.0,91,0.00,,,0.00,33,Wunderground v.1.15,2013-02-13 16:54:00,
2013-02-13 08:55:00,42.8,40.4,30.42,NW,316,0.0,-999.0,91,0.00,,,0.00,37,Wunderground v.1.15,2013-02-13 16:55:00,
2013-02-13 08:57:00,42.9,40.5,30.42,NW,316,0.0,-999.0,91,0.00,,,0.00,37,Wunderground v.1.15,2013-02-13 16:57:00,
2013-02-13 08:59:00,42.9,40.5,30.42,NW,316,0.0,-999.0,91,0.00,,,0.00,37,Wunderground v.1.15,2013-02-13 16:59:00,
2013-02-13 09:00:00,42.9,40.5,30.42,NW,316,0.0,-999.0,91,0.00,,,0.00,37,Wunderground v.1.15,2013-02-13 17:00:00,
2013-02-13 09:02:00,42.9,40.5,30.42,NW,316,0.0,-999.0,91,0.00,,,0.00,37,Wunderground v.1.15,2013-02-13 17:02:00,
2013-02-13 09:04:00,43.1,40.7,30.42,NW,316,0.0,-999.0,91,0.00,,,0.00,42,Wunderground v.1.15,2013-02-13 17:04:00,
2013-02-13 09:06:00,43.1,40.7,30.42,NW,316,0.0,-999.0,91,0.00,,,0.00,42,Wunderground v.1.15,2013-02-13 17:06:00,
2013-02-13 09:07:00,43.1,40.7,30.42,NW,316,0.0,-999.0,91,0.00,,,0.00,42,Wunderground v.1.15,2013-02-13 17:07:00,
2013-02-13 09:09:00,43.2,40.8,30.42,NW,316,0.0,-999.0,91,0.00,,,0.00,44,Wunderground v.1.15,2013-02-13 17:09:00,
2013-02-13 09:11:00,43.2,40.8,30.42,NW,316,0.0,-999.0,91,0.00,,,0.00,44,Wunderground v.1.15,2013-02-13 17:11:00,
2013-02-13 09:12:00,43.2,40.8,30.42,NW,316,0.0,-999.0,91,0.00,,,0.00,48,Wunderground v.1.15,2013-02-13 17:12:00,
2013-02-13 09:14:00,43.2,40.8,30.42,NW,316,0.0,-999.0,91,0.00,,,0.00,48,Wunderground v.1.15,2013-02-13 17:14:00,
2013-02-13 09:15:00,43.2,40.8,30.42,NW,316,0.0,-999.0,91,0.00,,,0.00,48,Wunderground v.1.15,2013-02-13 17:15:00,
2013-02-13 09:16:00,43.2,40.8,30.43,NW,316,0.0,-999.0,91,0.00,,,0.00,49,Wunderground v.1.15,2013-02-13 17:16:00,
2013-02-13 09:17:00,43.4,40.9,30.43,NW,316,0.0,-999.0,91,0.00,,,0.00,49,Wunderground v.1.15,2013-02-13 17:17:00,
2013-02-13 09:20:00,43.4,40.9,30.43,NW,316,0.0,-999.0,91,0.00,,,0.00,49,Wunderground v.1.15,2013-02-13 17:20:00,
2013-02-13 09:21:00,43.4,40.9,30.43,NW,316,0.0,-999.0,91,0.00,,,0.00,70,Wunderground v.1.15,2013-02-13 17:21:00,
2013-02-13 09:22:00,43.5,41.0,30.43,NW,316,0.0,-999.0,91,0.00,,,0.00,72,Wunderground v.1.15,2013-02-13 17:22:00,
2013-02-13 09:25:00,43.7,41.2,30.43,NW,316,0.0,-999.0,91,0.00,,,0.00,79,Wunderground v.1.15,2013-02-13 17:25:00,
2013-02-13 09:26:00,43.7,41.2,30.43,NW,316,0.0,-999.0,91,0.00,,,0.00,81,Wunderground v.1.15,2013-02-13 17:26:00,
2013-02-13 09:27:00,43.7,41.2,30.43,NW,316,0.0,-999.0,91,0.00,,,0.00,79,Wunderground v.1.15,2013-02-13 17:27:00,
2013-02-13 09:28:00,43.7,41.2,30.43,NW,316,0.0,-999.0,91,0.00,,,0.00,79,Wunderground v.1.15,2013-02-13 17:28:00,
2013-02-13 09:30:00,43.7,41.2,30.43,NW,316,0.0,-999.0,91,0.00,,,0.00,79,Wunderground v.1.15,2013-02-13 17:30:00,
2013-02-13 09:31:00,43.8,41.3,30.43,NW,316,0.0,-999.0,91,0.00,,,0.00,77,Wunderground v.1.15,2013-02-13 17:31:00,
2013-02-13 09:32:00,43.8,41.3,30.43,NW,316,0.0,-999.0,91,0.00,,,0.00,76,Wunderground v.1.15,2013-02-13 17:32:00,
2013-02-13 09:33:00,43.8,41.3,30.43,NW,316,0.0,-999.0,91,0.00,,,0.00,74,Wunderground v.1.15,2013-02-13 17:33:00,
2013-02-13 09:35:00,43.8,41.3,30.43,NW,316,0.0,-999.0,91,0.00,,,0.00,76,Wunderground v.1.15,2013-02-13 17:35:00,
2013-02-13 09:37:00,43.9,41.4,30.43,NW,316,0.0,-999.0,91,0.00,,,0.00,81,Wunderground v.1.15,2013-02-13 17:37:00,
2013-02-13 09:38:00,43.9,41.4,30.43,NW,316,0.0,-999.0,91,0.00,,,0.00,83,Wunderground v.1.15,2013-02-13 17:38:00,
2013-02-13 09:40:00,44.1,41.6,30.43,NW,316,0.0,-999.0,91,0.00,,,0.00,88,Wunderground v.1.15,2013-02-13 17:40:00,
2013-02-13 09:43:00,44.1,41.6,30.43,NW,316,0.0,-999.0,91,0.00,,,0.00,100,Wunderground v.1.15,2013-02-13 17:43:00,
2013-02-13 09:44:00,44.1,41.6,30.43,NW,316,0.0,-999.0,91,0.00,,,0.00,104,Wunderground v.1.15,2013-02-13 17:44:00,
2013-02-13 09:45:00,44.1,41.6,30.43,NW,316,0.0,-999.0,91,0.00,,,0.00,106,Wunderground v.1.15,2013-02-13 17:45:00,
2013-02-13 09:48:00,44.2,41.7,30.43,NW,316,0.0,-999.0,91,0.00,,,0.00,111,Wunderground v.1.15,2013-02-13 17:48:00,
2013-02-13 09:49:00,44.2,41.7,30.43,NW,316,0.0,-999.0,91,0.00,,,0.00,111,Wunderground v.1.15,2013-02-13 17:49:00,
2013-02-13 09:51:00,44.2,41.7,30.43,NW,316,0.0,-999.0,91,0.00,,,0.00,109,Wunderground v.1.15,2013-02-13 17:51:00,
2013-02-13 09:53:00,44.2,41.7,30.43,NW,316,0.0,-999.0,91,0.00,,,0.00,104,Wunderground v.1.15,2013-02-13 17:53:00,
2013-02-13 09:54:00,44.2,41.7,30.43,NW,316,0.0,-999.0,91,0.00,,,0.00,100,Wunderground v.1.15,2013-02-13 17:54:00,
2013-02-13 09:56:00,44.2,41.7,30.43,NW,316,0.0,-999.0,91,0.00,,,0.00,90,Wunderground v.1.15,2013-02-13 17:56:00,
2013-02-13 09:58:00,44.4,41.9,30.43,NW,316,0.0,-999.0,91,0.00,,,0.00,90,Wunderground v.1.15,2013-02-13 17:58:00,
2013-02-13 09:59:00,44.4,41.9,30.43,NW,316,0.0,-999.0,91,0.00,,,0.00,88,Wunderground v.1.15,2013-02-13 17:59:00,
2013-02-13 10:01:00,44.4,41.9,30.44,NW,316,0.0,-999.0,91,0.00,,,0.00,81,Wunderground v.1.15,2013-02-13 18:01:00,
2013-02-13 10:03:00,44.5,42.0,30.44,NW,316,0.0,-999.0,91,0.00,,,0.00,84,Wunderground v.1.15,2013-02-13 18:03:00,
2013-02-13 10:04:00,44.5,42.0,30.44,NW,316,0.0,-999.0,91,0.00,,,0.00,86,Wunderground v.1.15,2013-02-13 18:04:00,
2013-02-13 10:05:00,44.5,42.0,30.44,NW,316,0.0,-999.0,91,0.00,,,0.00,86,Wunderground v.1.15,2013-02-13 18:05:00,
2013-02-13 10:06:00,44.5,42.0,30.44,NW,316,0.0,-999.0,91,0.00,,,0.00,86,Wunderground v.1.15,2013-02-13 18:06:00,
2013-02-13 10:08:00,44.7,42.2,30.44,NW,316,0.0,-999.0,91,0.00,,,0.00,77,Wunderground v.1.15,2013-02-13 18:08:00,
2013-02-13 10:10:00,44.7,42.2,30.44,NW,316,0.0,-999.0,91,0.00,,,0.00,72,Wunderground v.1.15,2013-02-13 18:10:00,
2013-02-13 10:11:00,44.7,42.2,30.44,NW,316,0.0,-999.0,91,0.00,,,0.00,74,Wunderground v.1.15,2013-02-13 18:11:00,
2013-02-13 10:14:00,44.7,42.2,30.44,NW,316,0.0,-999.0,91,0.00,,,0.00,63,Wunderground v.1.15,2013-02-13 18:14:00,
2013-02-13 10:15:00,44.7,42.2,30.44,NW,316,0.0,-999.0,91,0.00,,,0.00,63,Wunderground v.1.15,2013-02-13 18:15:00,
2013-02-13 10:17:00,44.7,42.2,30.43,NW,316,0.0,-999.0,91,0.00,,,0.00,67,Wunderground v.1.15,2013-02-13 18:17:00,
2013-02-13 10:19:00,44.7,42.2,30.43,NW,316,0.0,-999.0,91,0.00,,,0.00,60,Wunderground v.1.15,2013-02-13 18:19:00,
2013-02-13 10:20:00,44.8,42.3,30.43,NW,316,0.0,-999.0,91,0.00,,,0.00,60,Wunderground v.1.15,2013-02-13 18:20:00,
2013-02-13 10:22:00,44.8,42.3,30.43,NW,316,0.0,-999.0,91,0.00,,,0.00,58,Wunderground v.1.15,2013-02-13 18:22:00,
2013-02-13 10:24:00,44.8,42.3,30.43,NW,316,0.0,-999.0,91,0.00,,,0.00,67,Wunderground v.1.15,2013-02-13 18:24:00,
2013-02-13 10:25:00,44.8,42.3,30.43,NW,316,0.0,-999.0,91,0.00,,,0.00,67,Wunderground v.1.15,2013-02-13 18:25:00,
2013-02-13 10:27:00,44.8,42.3,30.43,NW,316,0.0,-999.0,91,0.00,,,0.00,70,Wunderground v.1.15,2013-02-13 18:27:00,
2013-02-13 10:29:00,44.8,42.3,30.43,NW,316,0.0,-999.0,91,0.00,,,0.00,56,Wunderground v.1.15,2013-02-13 18:29:00,
2013-02-13 10:30:00,44.7,42.2,30.43,NW,316,0.0,-999.0,91,0.00,,,0.00,56,Wunderground v.1.15,2013-02-13 18:30:00,
2013-02-13 10:31:00,44.8,42.3,30.44,NW,316,0.0,-999.0,91,0.00,,,0.00,51,Wunderground v.1.15,2013-02-13 18:31:00,
2013-02-13 10:32:00,44.8,42.3,30.44,NW,316,1.0,-999.0,91,0.00,,,0.00,40,Wunderground v.1.15,2013-02-13 18:32:00,
2013-02-13 10:35:00,44.7,42.2,30.44,NW,316,0.0,-999.0,91,0.00,,,0.00,40,Wunderground v.1.15,2013-02-13 18:35:00,
2013-02-13 10:36:00,44.7,42.2,30.44,NW,316,0.0,-999.0,91,0.00,,,0.00,44,Wunderground v.1.15,2013-02-13 18:36:00,
2013-02-13 10:37:00,44.7,42.2,30.44,NW,316,0.0,-999.0,91,0.00,,,0.00,46,Wunderground v.1.15,2013-02-13 18:37:00,
2013-02-13 10:40:00,44.5,42.0,30.44,NW,316,0.0,-999.0,91,0.00,,,0.00,40,Wunderground v.1.15,2013-02-13 18:40:00,
2013-02-13 10:41:00,44.5,42.0,30.44,NW,316,0.0,-999.0,91,0.00,,,0.00,42,Wunderground v.1.15,2013-02-13 18:41:00,
2013-02-13 10:43:00,44.5,42.0,30.44,NW,316,0.0,-999.0,91,0.00,,,0.00,44,Wunderground v.1.15,2013-02-13 18:43:00,
2013-02-13 10:45:00,44.5,42.0,30.44,NW,316,0.0,-999.0,91,0.00,,,0.00,44,Wunderground v.1.15,2013-02-13 18:45:00,
2013-02-13 10:46:00,44.5,42.0,30.44,NW,316,0.0,-999.0,91,0.00,,,0.00,42,Wunderground v.1.15,2013-02-13 18:46:00,
2013-02-13 10:48:00,44.4,41.9,30.44,NW,316,0.0,-999.0,91,0.00,,,0.00,42,Wunderground v.1.15,2013-02-13 18:48:00,
2013-02-13 10:50:00,44.4,41.9,30.44,NW,316,0.0,-999.0,91,0.00,,,0.00,40,Wunderground v.1.15,2013-02-13 18:50:00,
2013-02-13 10:51:00,44.5,42.0,30.44,NW,316,0.0,-999.0,91,0.00,,,0.00,40,Wunderground v.1.15,2013-02-13 18:51:00,
2013-02-13 10:53:00,44.5,42.0,30.44,SE,143,2.0,-999.0,91,0.00,,,0.00,40,Wunderground v.1.15,2013-02-13 18:53:00,
2013-02-13 10:55:00,44.5,42.0,30.44,SE,143,1.0,-999.0,91,0.00,,,0.00,74,Wunderground v.1.15,2013-02-13 18:55:00,
2013-02-13 10:56:00,44.5,42.0,30.44,SE,143,0.0,-999.0,91,0.00,,,0.00,74,Wunderground v.1.15,2013-02-13 18:56:00,
2013-02-13 10:58:00,44.5,42.0,30.44,SE,143,0.0,-999.0,91,0.00,,,0.00,70,Wunderground v.1.15,2013-02-13 18:58:00,
2013-02-13 11:00:00,44.5,42.0,30.44,SE,143,0.0,-999.0,91,0.00,,,0.00,70,Wunderground v.1.15,2013-02-13 19:00:00,
2013-02-13 11:01:00,44.5,42.0,30.44,SE,143,0.0,-999.0,91,0.00,,,0.00,70,Wunderground v.1.15,2013-02-13 19:01:00,
2013-02-13 11:02:00,44.7,42.2,30.44,SE,143,0.0,-999.0,91,0.00,,,0.00,69,Wunderground v.1.15,2013-02-13 19:02:00,
2013-02-13 11:03:00,44.7,42.2,30.44,SE,143,1.0,-999.0,91,0.00,,,0.00,65,Wunderground v.1.15,2013-02-13 19:03:00,
2013-02-13 11:06:00,44.7,42.2,30.44,SE,143,0.0,-999.0,91,0.00,,,0.00,63,Wunderground v.1.15,2013-02-13 19:06:00,
2013-02-13 11:07:00,44.7,42.2,30.44,SE,143,0.0,-999.0,91,0.00,,,0.00,67,Wunderground v.1.15,2013-02-13 19:07:00,
2013-02-13 11:08:00,44.7,42.2,30.44,SE,143,0.0,-999.0,91,0.00,,,0.00,74,Wunderground v.1.15,2013-02-13 19:08:00,
2013-02-13 11:11:00,44.8,42.3,30.44,SE,142,0.0,-999.0,91,0.00,,,0.00,79,Wunderground v.1.15,2013-02-13 19:11:00,
2013-02-13 11:12:00,44.8,42.3,30.44,SE,142,0.0,-999.0,91,0.00,,,0.00,79,Wunderground v.1.15,2013-02-13 19:12:00,
2013-02-13 11:13:00,44.8,42.3,30.44,South,169,0.0,-999.0,91,0.00,,,0.00,76,Wunderground v.1.15,2013-02-13 19:13:00,
2013-02-13 11:16:00,44.8,42.3,30.44,South,169,0.0,-999.0,91,0.00,,,0.00,74,Wunderground v.1.15,2013-02-13 19:16:00,
2013-02-13 11:17:00,44.8,42.3,30.44,South,169,0.0,-999.0,91,0.00,,,0.00,76,Wunderground v.1.15,2013-02-13 19:17:00,
2013-02-13 11:19:00,44.8,42.3,30.44,SSE,159,3.0,-999.0,91,0.00,,,0.00,81,Wunderground v.1.15,2013-02-13 19:19:00,
2013-02-13 11:21:00,44.8,42.3,30.44,SSE,159,0.0,-999.0,91,0.00,,,0.00,84,Wunderground v.1.15,2013-02-13 19:21:00,
2013-02-13 11:22:00,44.9,42.4,30.44,SSE,159,0.0,-999.0,91,0.00,,,0.00,90,Wunderground v.1.15,2013-02-13 19:22:00,
2013-02-13 11:24:00,44.9,42.4,30.44,SSE,159,0.0,-999.0,91,0.00,,,0.00,88,Wunderground v.1.15,2013-02-13 19:24:00,
2013-02-13 11:26:00,45.1,42.6,30.44,SSE,150,0.0,-999.0,91,0.00,,,0.00,91,Wunderground v.1.15,2013-02-13 19:26:00,
2013-02-13 11:27:00,45.1,42.6,30.44,SSE,149,0.0,-999.0,91,0.00,,,0.00,90,Wunderground v.1.15,2013-02-13 19:27:00,
2013-02-13 11:28:00,45.1,42.6,30.44,SSE,149,0.0,-999.0,91,0.00,,,0.00,84,Wunderground v.1.15,2013-02-13 19:28:00,
2013-02-13 11:29:00,45.1,42.6,30.44,SE,141,0.0,-999.0,91,0.00,,,0.00,79,Wunderground v.1.15,2013-02-13 19:29:00,
2013-02-13 11:31:00,45.1,42.6,30.44,SSE,165,1.0,-999.0,91,0.00,,,0.00,76,Wunderground v.1.15,2013-02-13 19:31:00,
2013-02-13 11:32:00,45.1,42.6,30.44,SSE,165,0.0,-999.0,91,0.00,,,0.00,74,Wunderground v.1.15,2013-02-13 19:32:00,
2013-02-13 11:33:00,45.1,42.6,30.44,SSE,165,0.0,-999.0,91,0.00,,,0.00,74,Wunderground v.1.15,2013-02-13 19:33:00,
2013-02-13 11:35:00,45.1,42.6,30.44,SSE,165,0.0,-999.0,91,0.00,,,0.00,72,Wunderground v.1.15,2013-02-13 19:35:00,
2013-02-13 11:37:00,45.2,42.7,30.44,SSE,165,0.0,-999.0,91,0.00,,,0.00,72,Wunderground v.1.15,2013-02-13 19:37:00,
2013-02-13 11:38:00,45.2,42.7,30.44,SSE,165,0.0,-999.0,91,0.00,,,0.00,67,Wunderground v.1.15,2013-02-13 19:38:00,
2013-02-13 11:39:00,45.2,42.7,30.44,SSE,165,0.0,-999.0,91,0.00,,,0.00,67,Wunderground v.1.15,2013-02-13 19:39:00,
2013-02-13 11:40:00,45.2,42.7,30.44,SSE,165,0.0,-999.0,91,0.00,,,0.00,67,Wunderground v.1.15,2013-02-13 19:40:00,
2013-02-13 11:42:00,45.2,42.7,30.44,SSE,165,2.0,-999.0,91,0.00,,,0.00,55,Wunderground v.1.15,2013-02-13 19:42:00,
2013-02-13 11:44:00,45.2,42.7,30.44,SSE,165,0.0,-999.0,91,0.00,,,0.00,42,Wunderground v.1.15,2013-02-13 19:44:00,
2013-02-13 11:45:00,45.2,42.7,30.44,SSE,165,0.0,-999.0,91,0.00,,,0.00,46,Wunderground v.1.15,2013-02-13 19:45:00,
2013-02-13 11:47:00,45.2,42.7,30.44,SSE,165,0.0,-999.0,91,0.00,,,0.00,53,Wunderground v.1.15,2013-02-13 19:47:00,
2013-02-13 11:49:00,45.2,42.7,30.44,SSE,165,0.0,-999.0,91,0.00,,,0.00,58,Wunderground v.1.15,2013-02-13 19:49:00,
2013-02-13 11:51:00,45.2,42.7,30.44,SSE,165,0.0,-999.0,91,0.00,,,0.00,51,Wunderground v.1.15,2013-02-13 19:51:00,
2013-02-13 11:52:00,45.2,42.7,30.44,SSE,165,0.0,-999.0,91,0.00,,,0.00,40,Wunderground v.1.15,2013-02-13 19:52:00,
2013-02-13 11:54:00,45.2,42.7,30.44,SSE,165,0.0,-999.0,91,0.00,,,0.00,32,Wunderground v.1.15,2013-02-13 19:54:00,
2013-02-13 11:55:00,45.2,42.7,30.44,SSE,165,1.0,-999.0,91,0.00,,,0.00,30,Wunderground v.1.15,2013-02-13 19:55:00,
2013-02-13 11:56:00,45.2,42.7,30.44,SE,139,0.0,-999.0,91,0.00,,,0.00,30,Wunderground v.1.15,2013-02-13 19:56:00,
2013-02-13 11:57:00,45.2,42.7,30.44,SE,139,0.0,-999.0,91,0.00,,,0.00,32,Wunderground v.1.15,2013-02-13 19:57:00,
2013-02-13 11:59:00,45.2,42.7,30.44,SE,139,0.0,-999.0,91,0.00,,,0.00,32,Wunderground v.1.15,2013-02-13 19:59:00,
2013-02-13 12:00:00,45.2,42.7,30.44,SE,139,0.0,-999.0,91,0.00,,,0.00,32,Wunderground v.1.15,2013-02-13 20:00:00,
2013-02-13 12:01:00,45.2,42.7,30.45,SE,139,0.0,-999.0,91,0.00,,,0.00,32,Wunderground v.1.15,2013-02-13 20:01:00,
2013-02-13 12:03:00,45.2,42.7,30.45,SE,139,0.0,-999.0,91,0.00,,,0.00,33,Wunderground v.1.15,2013-02-13 20:03:00,
2013-02-13 12:04:00,45.2,42.7,30.45,SE,139,0.0,-999.0,91,0.00,,,0.00,33,Wunderground v.1.15,2013-02-13 20:04:00,
2013-02-13 12:05:00,45.2,42.7,30.45,SE,139,0.0,-999.0,91,0.00,,,0.00,33,Wunderground v.1.15,2013-02-13 20:05:00,
2013-02-13 12:06:00,45.2,42.7,30.45,SE,139,0.0,-999.0,91,0.00,,,0.00,51,Wunderground v.1.15,2013-02-13 20:06:00,
2013-02-13 12:08:00,45.2,42.7,30.45,SE,139,0.0,-999.0,91,0.00,,,0.00,51,Wunderground v.1.15,2013-02-13 20:08:00,
2013-02-13 12:10:00,45.2,42.7,30.45,SE,139,0.0,-999.0,91,0.00,,,0.00,51,Wunderground v.1.15,2013-02-13 20:10:00,
2013-02-13 12:12:00,45.2,42.7,30.45,SE,139,0.0,-999.0,91,0.00,,,0.00,79,Wunderground v.1.15,2013-02-13 20:12:00,
2013-02-13 12:13:00,45.2,42.7,30.45,SE,139,0.0,-999.0,91,0.00,,,0.00,83,Wunderground v.1.15,2013-02-13 20:13:00,
2013-02-13 12:15:00,45.2,42.7,30.45,SE,139,0.0,-999.0,91,0.00,,,0.00,83,Wunderground v.1.15,2013-02-13 20:15:00,
2013-02-13 12:17:00,45.2,42.7,30.44,SE,139,0.0,-999.0,91,0.00,,,0.00,83,Wunderground v.1.15,2013-02-13 20:17:00,
2013-02-13 12:18:00,45.4,42.9,30.44,SE,139,0.0,-999.0,91,0.00,,,0.00,83,Wunderground v.1.15,2013-02-13 20:18:00,
2013-02-13 12:20:00,45.4,42.9,30.44,SE,139,0.0,-999.0,91,0.00,,,0.00,88,Wunderground v.1.15,2013-02-13 20:20:00,
2013-02-13 12:21:00,45.4,42.9,30.44,SE,139,0.0,-999.0,91,0.00,,,0.00,91,Wunderground v.1.15,2013-02-13 20:21:00,
2013-02-13 12:22:00,45.4,42.9,30.44,SE,139,0.0,-999.0,91,0.00,,,0.00,90,Wunderground v.1.15,2013-02-13 20:22:00,
2013-02-13 12:23:00,45.5,43.0,30.44,SE,139,0.0,-999.0,91,0.00,,,0.00,88,Wunderground v.1.15,2013-02-13 20:23:00,
2013-02-13 12:26:00,45.5,43.0,30.44,SE,139,0.0,-999.0,91,0.00,,,0.00,84,Wunderground v.1.15,2013-02-13 20:26:00,
2013-02-13 12:27:00,45.5,43.0,30.44,SE,139,0.0,-999.0,91,0.00,,,0.00,74,Wunderground v.1.15,2013-02-13 20:27:00,
2013-02-13 12:29:00,45.7,43.2,30.44,SE,141,0.0,-999.0,91,0.00,,,0.00,69,Wunderground v.1.15,2013-02-13 20:29:00,
2013-02-13 12:31:00,45.7,43.2,30.44,SE,141,0.0,-999.0,91,0.00,,,0.00,77,Wunderground v.1.15,2013-02-13 20:31:00,
2013-02-13 12:32:00,45.7,43.2,30.44,SE,141,0.0,-999.0,91,0.00,,,0.00,79,Wunderground v.1.15,2013-02-13 20:32:00,
2013-02-13 12:34:00,45.7,43.2,30.44,SE,141,1.0,-999.0,91,0.00,,,0.00,90,Wunderground v.1.15,2013-02-13 20:34:00,
2013-02-13 12:36:00,45.7,42.9,30.44,SE,141,0.0,-999.0,90,0.00,,,0.00,104,Wunderground v.1.15,2013-02-13 20:36:00,
2013-02-13 12:38:00,45.7,42.6,30.44,SE,141,0.0,-999.0,89,0.00,,,0.00,107,Wunderground v.1.15,2013-02-13 20:38:00,
2013-02-13 12:39:00,45.7,42.6,30.44,SE,141,0.0,-999.0,89,0.00,,,0.00,107,Wunderground v.1.15,2013-02-13 20:39:00,
2013-02-13 12:41:00,45.7,42.6,30.44,SE,141,0.0,-999.0,89,0.00,,,0.00,99,Wunderground v.1.15,2013-02-13 20:41:00,
2013-02-13 12:43:00,45.8,42.7,30.44,SE,141,0.0,-999.0,89,0.00,,,0.00,91,Wunderground v.1.15,2013-02-13 20:43:00,
2013-02-13 12:45:00,45.7,42.3,30.44,SE,141,0.0,-999.0,88,0.00,,,0.00,90,Wunderground v.1.15,2013-02-13 20:45:00,
2013-02-13 12:46:00,45.7,42.3,30.45,SE,141,0.0,-999.0,88,0.00,,,0.00,79,Wunderground v.1.15,2013-02-13 20:46:00,
2013-02-13 12:48:00,45.8,42.4,30.45,SE,141,0.0,-999.0,88,0.00,,,0.00,83,Wunderground v.1.15,2013-02-13 20:48:00,
2013-02-13 12:50:00,45.8,42.4,30.45,SE,141,0.0,-999.0,88,0.00,,,0.00,91,Wunderground v.1.15,2013-02-13 20:50:00,
2013-02-13 12:51:00,45.8,42.4,30.45,SE,141,0.0,-999.0,88,0.00,,,0.00,99,Wunderground v.1.15,2013-02-13 20:51:00,
2013-02-13 12:52:00,45.8,42.4,30.45,SE,141,0.0,-999.0,88,0.00,,,0.00,99,Wunderground v.1.15,2013-02-13 20:52:00,
2013-02-13 12:54:00,46.0,42.6,30.45,SE,141,0.0,-999.0,88,0.00,,,0.00,77,Wunderground v.1.15,2013-02-13 20:54:00,
2013-02-13 12:55:00,46.0,42.6,30.45,SE,141,0.0,-999.0,88,0.00,,,0.00,70,Wunderground v.1.15,2013-02-13 20:55:00,
2013-02-13 12:57:00,46.0,42.6,30.45,SE,141,0.0,-999.0,88,0.00,,,0.00,69,Wunderground v.1.15,2013-02-13 20:57:00,
2013-02-13 12:59:00,46.0,42.6,30.45,SE,141,0.0,-999.0,88,0.00,,,0.00,88,Wunderground v.1.15,2013-02-13 20:59:00,
2013-02-13 13:00:00,46.0,42.6,30.44,SE,141,0.0,-999.0,88,0.00,,,0.00,91,Wunderground v.1.15,2013-02-13 21:00:00,
2013-02-13 13:02:00,46.0,42.6,30.44,SE,141,0.0,-999.0,88,0.00,,,0.00,93,Wunderground v.1.15,2013-02-13 21:02:00,
2013-02-13 13:03:00,46.0,42.6,30.44,SE,141,0.0,-999.0,88,0.00,,,0.00,93,Wunderground v.1.15,2013-02-13 21:03:00,
2013-02-13 13:04:00,46.1,42.7,30.44,SE,141,0.0,-999.0,88,0.00,,,0.00,120,Wunderground v.1.15,2013-02-13 21:04:00,
2013-02-13 13:06:00,46.1,42.4,30.44,SE,141,0.0,-999.0,87,0.00,,,0.00,128,Wunderground v.1.15,2013-02-13 21:06:00,
2013-02-13 13:07:00,46.1,42.7,30.44,SE,141,0.0,-999.0,88,0.00,,,0.00,135,Wunderground v.1.15,2013-02-13 21:07:00,
2013-02-13 13:08:00,46.1,42.7,30.44,SE,141,0.0,-999.0,88,0.00,,,0.00,137,Wunderground v.1.15,2013-02-13 21:08:00,
2013-02-13 13:10:00,46.3,42.9,30.44,SE,141,0.0,-999.0,88,0.00,,,0.00,127,Wunderground v.1.15,2013-02-13 21:10:00,
2013-02-13 13:11:00,46.3,42.9,30.44,SE,141,0.0,-999.0,88,0.00,,,0.00,127,Wunderground v.1.15,2013-02-13 21:11:00,
2013-02-13 13:12:00,46.3,42.6,30.44,SE,141,1.0,-999.0,87,0.00,,,0.00,109,Wunderground v.1.15,2013-02-13 21:12:00,
2013-02-13 13:14:00,46.3,42.3,30.44,South,173,0.0,-999.0,86,0.00,,,0.00,120,Wunderground v.1.15,2013-02-13 21:14:00,
2013-02-13 13:15:00,46.3,42.6,30.44,South,173,2.0,-999.0,87,0.00,,,0.00,132,Wunderground v.1.15,2013-02-13 21:15:00,
2013-02-13 13:17:00,46.3,42.6,30.44,SE,143,0.0,-999.0,87,0.00,,,0.00,128,Wunderground v.1.15,2013-02-13 21:17:00,
2013-02-13 13:20:00,46.4,42.4,30.44,SE,143,0.0,-999.0,86,0.00,,,0.00,104,Wunderground v.1.15,2013-02-13 21:20:00,
2013-02-13 13:21:00,46.4,42.4,30.44,ESE,118,0.0,-999.0,86,0.00,,,0.00,99,Wunderground v.1.15,2013-02-13 21:21:00,
2013-02-13 13:22:00,46.4,42.4,30.44,ESE,118,1.0,-999.0,86,0.00,,,0.00,93,Wunderground v.1.15,2013-02-13 21:22:00,
2013-02-13 13:25:00,46.4,42.4,30.44,WSW,238,0.0,-999.0,86,0.00,,,0.00,102,Wunderground v.1.15,2013-02-13 21:25:00,
2013-02-13 13:26:00,46.4,42.1,30.44,WSW,238,0.0,-999.0,85,0.00,,,0.00,109,Wunderground v.1.15,2013-02-13 21:26:00,
2013-02-13 13:27:00,46.4,41.8,30.44,WSW,238,0.0,-999.0,84,0.00,,,0.00,118,Wunderground v.1.15,2013-02-13 21:27:00,
2013-02-13 13:28:00,46.3,41.7,30.44,WSW,238,0.0,-999.0,84,0.00,,,0.00,123,Wunderground v.1.15,2013-02-13 21:28:00,
2013-02-13 13:30:00,46.3,41.7,30.44,ESE,104,1.0,-999.0,84,0.00,,,0.00,107,Wunderground v.1.15,2013-02-13 21:30:00,
2013-02-13 13:31:00,46.4,41.8,30.44,ESE,104,0.0,-999.0,84,0.00,,,0.00,97,Wunderground v.1.15,2013-02-13 21:31:00,
2013-02-13 13:32:00,46.4,41.8,30.44,ESE,104,0.0,-999.0,84,0.00,,,0.00,99,Wunderground v.1.15,2013-02-13 21:32:00,
2013-02-13 13:33:00,46.4,41.8,30.44,ESE,104,0.0,-999.0,84,0.00,,,0.00,102,Wunderground v.1.15,2013-02-13 21:33:00,
2013-02-13 13:35:00,46.4,41.8,30.44,ESE,104,0.0,-999.0,84,0.00,,,0.00,99,Wunderground v.1.15,2013-02-13 21:35:00,
2013-02-13 13:36:00,46.4,41.5,30.44,ESE,104,0.0,-999.0,83,0.00,,,0.00,93,Wunderground v.1.15,2013-02-13 21:36:00,
2013-02-13 13:37:00,46.4,41.5,30.44,ESE,104,1.0,-999.0,83,0.00,,,0.00,95,Wunderground v.1.15,2013-02-13 21:37:00,
2013-02-13 13:38:00,46.4,41.5,30.44,SE,138,1.0,-999.0,83,0.00,,,0.00,99,Wunderground v.1.15,2013-02-13 21:38:00,
2013-02-13 13:40:00,46.4,41.5,30.44,SE,138,0.0,-999.0,83,0.00,,,0.00,86,Wunderground v.1.15,2013-02-13 21:40:00,
2013-02-13 13:41:00,46.4,41.5,30.44,SE,138,0.0,-999.0,83,0.00,,,0.00,83,Wunderground v.1.15,2013-02-13 21:41:00,
2013-02-13 13:42:00,46.4,41.5,30.44,SE,138,0.0,-999.0,83,0.00,,,0.00,83,Wunderground v.1.15,2013-02-13 21:42:00,
2013-02-13 13:43:00,46.4,41.2,30.44,SE,138,0.0,-999.0,82,0.00,,,0.00,79,Wunderground v.1.15,2013-02-13 21:43:00,
2013-02-13 13:45:00,46.4,41.2,30.44,ESE,122,0.0,-999.0,82,0.00,,,0.00,65,Wunderground v.1.15,2013-02-13 21:45:00,
2013-02-13 13:47:00,46.6,41.7,30.44,ESE,122,0.0,-999.0,83,0.00,,,0.00,60,Wunderground v.1.15,2013-02-13 21:47:00,
2013-02-13 13:48:00,46.6,41.7,30.44,ESE,122,0.0,-999.0,83,0.00,,,0.00,55,Wunderground v.1.15,2013-02-13 21:48:00,
2013-02-13 13:49:00,46.6,41.7,30.44,ESE,122,0.0,-999.0,83,0.00,,,0.00,55,Wunderground v.1.15,2013-02-13 21:49:00,
2013-02-13 13:51:00,46.6,41.7,30.44,ESE,104,0.0,-999.0,83,0.00,,,0.00,70,Wunderground v.1.15,2013-02-13 21:51:00,
2013-02-13 13:52:00,46.6,41.7,30.44,ESE,104,0.0,-999.0,83,0.00,,,0.00,70,Wunderground v.1.15,2013-02-13 21:52:00,
2013-02-13 13:53:00,46.4,41.2,30.44,ESE,104,0.0,-999.0,82,0.00,,,0.00,74,Wunderground v.1.15,2013-02-13 21:53:00,
2013-02-13 13:54:00,46.4,41.2,30.44,ESE,104,0.0,-999.0,82,0.00,,,0.00,74,Wunderground v.1.15,2013-02-13 21:54:00,
2013-02-13 13:56:00,46.4,41.5,30.44,ESE,112,0.0,-999.0,83,0.00,,,0.00,67,Wunderground v.1.15,2013-02-13 21:56:00,
2013-02-13 13:57:00,46.4,41.2,30.44,ESE,114,0.0,-999.0,82,0.00,,,0.00,63,Wunderground v.1.15,2013-02-13 21:57:00,
2013-02-13 13:58:00,46.4,41.5,30.44,ESE,114,0.0,-999.0,83,0.00,,,0.00,60,Wunderground v.1.15,2013-02-13 21:58:00,
2013-02-13 13:59:00,46.4,41.5,30.44,ESE,114,0.0,-999.0,83,0.00,,,0.00,58,Wunderground v.1.15,2013-02-13 21:59:00,
2013-02-13 14:02:00,46.6,41.7,30.44,ESE,114,0.0,-999.0,83,0.00,,,0.00,53,Wunderground v.1.15,2013-02-13 22:02:00,
2013-02-13 14:03:00,46.6,41.7,30.44,ESE,114,0.0,-999.0,83,0.00,,,0.00,49,Wunderground v.1.15,2013-02-13 22:03:00,
2013-02-13 14:04:00,46.6,41.7,30.44,ESE,114,0.0,-999.0,83,0.00,,,0.00,46,Wunderground v.1.15,2013-02-13 22:04:00,
2013-02-13 14:07:00,46.6,41.7,30.44,ESE,114,0.0,-999.0,83,0.00,,,0.00,37,Wunderground v.1.15,2013-02-13 22:07:00,
2013-02-13 14:08:00,46.6,41.7,30.44,ESE,114,0.0,-999.0,83,0.00,,,0.00,35,Wunderground v.1.15,2013-02-13 22:08:00,
2013-02-13 14:09:00,46.6,42.0,30.44,ESE,114,0.0,-999.0,84,0.00,,,0.00,35,Wunderground v.1.15,2013-02-13 22:09:00,
2013-02-13 14:12:00,46.6,41.7,30.44,ESE,112,0.0,-999.0,83,0.00,,,0.00,40,Wunderground v.1.15,2013-02-13 22:12:00,
2013-02-13 14:13:00,46.6,41.7,30.44,ESE,114,0.0,-999.0,83,0.00,,,0.00,46,Wunderground v.1.15,2013-02-13 22:13:00,
2013-02-13 14:14:00,46.6,41.7,30.44,ESE,114,0.0,-999.0,83,0.00,,,0.00,46,Wunderground v.1.15,2013-02-13 22:14:00,
2013-02-13 14:17:00,46.6,41.7,30.43,ESE,114,0.0,-999.0,83,0.00,,,0.00,60,Wunderground v.1.15,2013-02-13 22:17:00,
2013-02-13 14:18:00,46.6,41.7,30.43,ESE,114,0.0,-999.0,83,0.00,,,0.00,65,Wunderground v.1.15,2013-02-13 22:18:00,
2013-02-13 14:20:00,46.6,41.7,30.43,ESE,114,0.0,-999.0,83,0.00,,,0.00,67,Wunderground v.1.15,2013-02-13 22:20:00,
2013-02-13 14:22:00,46.6,42.0,30.43,ESE,114,0.0,-999.0,84,0.00,,,0.00,62,Wunderground v.1.15,2013-02-13 22:22:00,
2013-02-13 14:23:00,46.6,42.0,30.43,ESE,114,0.0,-999.0,84,0.00,,,0.00,58,Wunderground v.1.15,2013-02-13 22:23:00,
2013-02-13 14:25:00,46.6,42.0,30.43,ENE,57,0.0,-999.0,84,0.00,,,0.00,55,Wunderground v.1.15,2013-02-13 22:25:00,
2013-02-13 14:27:00,46.6,42.0,30.43,ENE,57,0.0,-999.0,84,0.00,,,0.00,56,Wunderground v.1.15,2013-02-13 22:27:00,
2013-02-13 14:28:00,46.6,42.0,30.43,ENE,57,0.0,-999.0,84,0.00,,,0.00,56,Wunderground v.1.15,2013-02-13 22:28:00,
2013-02-13 14:30:00,46.7,42.1,30.43,ENE,57,0.0,-999.0,84,0.00,,,0.00,60,Wunderground v.1.15,2013-02-13 22:30:00,
2013-02-13 14:32:00,46.7,42.1,30.44,ENE,57,0.0,-999.0,84,0.00,,,0.00,63,Wunderground v.1.15,2013-02-13 22:32:00,
2013-02-13 14:34:00,46.7,42.1,30.44,ENE,57,0.0,-999.0,84,0.00,,,0.00,60,Wunderground v.1.15,2013-02-13 22:34:00,
2013-02-13 14:35:00,46.7,42.1,30.44,ENE,57,0.0,-999.0,84,0.00,,,0.00,56,Wunderground v.1.15,2013-02-13 22:35:00,
2013-02-13 14:36:00,46.7,42.1,30.44,ENE,57,0.0,-999.0,84,0.00,,,0.00,53,Wunderground v.1.15,2013-02-13 22:36:00,
2013-02-13 14:38:00,46.7,42.4,30.44,ENE,57,0.0,-999.0,85,0.00,,,0.00,48,Wunderground v.1.15,2013-02-13 22:38:00,
2013-02-13 14:39:00,46.7,42.7,30.44,ENE,57,0.0,-999.0,86,0.00,,,0.00,46,Wunderground v.1.15,2013-02-13 22:39:00,
2013-02-13 14:40:00,46.7,42.7,30.44,ENE,57,0.0,-999.0,86,0.00,,,0.00,46,Wunderground v.1.15,2013-02-13 22:40:00,
2013-02-13 14:41:00,46.7,42.7,30.44,ENE,57,0.0,-999.0,86,0.00,,,0.00,48,Wunderground v.1.15,2013-02-13 22:41:00,
2013-02-13 14:43:00,46.6,42.9,30.44,ENE,57,0.0,-999.0,87,0.00,,,0.00,46,Wunderground v.1.15,2013-02-13 22:43:00,
2013-02-13 14:44:00,46.6,42.9,30.44,ENE,57,0.0,-999.0,87,0.00,,,0.00,44,Wunderground v.1.15,2013-02-13 22:44:00,
2013-02-13 14:45:00,46.6,42.9,30.44,ENE,57,0.0,-999.0,87,0.00,,,0.00,37,Wunderground v.1.15,2013-02-13 22:45:00,
2013-02-13 14:46:00,46.6,43.2,30.44,ENE,57,0.0,-999.0,88,0.00,,,0.00,32,Wunderground v.1.15,2013-02-13 22:46:00,
2013-02-13 14:48:00,46.6,43.2,30.44,ENE,57,0.0,-999.0,88,0.00,,,0.00,28,Wunderground v.1.15,2013-02-13 22:48:00,
2013-02-13 14:49:00,46.4,43.0,30.44,ENE,57,0.0,-999.0,88,0.00,,,0.00,28,Wunderground v.1.15,2013-02-13 22:49:00,
2013-02-13 14:51:00,46.4,43.0,30.44,ENE,57,0.0,-999.0,88,0.00,,,0.00,28,Wunderground v.1.15,2013-02-13 22:51:00,
2013-02-13 14:53:00,46.4,43.0,30.44,ENE,57,0.0,-999.0,88,0.00,,,0.00,14,Wunderground v.1.15,2013-02-13 22:53:00,
2013-02-13 14:55:00,46.3,42.9,30.44,ENE,57,0.0,-999.0,88,0.00,,,0.00,14,Wunderground v.1.15,2013-02-13 22:55:00,
2013-02-13 14:56:00,46.3,43.2,30.44,ENE,57,0.0,-999.0,89,0.00,,,0.00,16,Wunderground v.1.15,2013-02-13 22:56:00,
2013-02-13 14:59:00,46.3,43.2,30.44,ENE,57,0.0,-999.0,89,0.00,,,0.01,16,Wunderground v.1.15,2013-02-13 22:59:00,
2013-02-13 15:00:00,46.3,43.2,30.44,ENE,57,0.0,-999.0,89,0.00,,,0.01,46,Wunderground v.1.15,2013-02-13 23:00:00,
2013-02-13 15:01:00,46.3,43.2,30.44,ENE,57,0.0,-999.0,89,0.00,,,0.01,46,Wunderground v.1.15,2013-02-13 23:01:00,
2013-02-13 15:04:00,46.1,43.3,30.44,ENE,57,0.0,-999.0,90,0.00,,,0.01,62,Wunderground v.1.15,2013-02-13 23:04:00,
2013-02-13 15:05:00,46.3,43.5,30.44,ENE,57,0.0,-999.0,90,0.00,,,0.01,70,Wunderground v.1.15,2013-02-13 23:05:00,
2013-02-13 15:07:00,46.1,43.3,30.44,ENE,57,0.0,-999.0,90,0.00,,,0.01,70,Wunderground v.1.15,2013-02-13 23:07:00,
2013-02-13 15:09:00,46.1,43.6,30.44,ENE,57,0.0,-999.0,91,0.00,,,0.01,49,Wunderground v.1.15,2013-02-13 23:09:00,
2013-02-13 15:10:00,46.1,43.6,30.44,ENE,57,0.0,-999.0,91,0.00,,,0.01,48,Wunderground v.1.15,2013-02-13 23:10:00,
2013-02-13 15:12:00,46.0,43.5,30.44,ENE,57,0.0,-999.0,91,0.00,,,0.01,44,Wunderground v.1.15,2013-02-13 23:12:00,
2013-02-13 15:13:00,46.0,43.5,30.44,ENE,57,0.0,-999.0,91,0.00,,,0.01,44,Wunderground v.1.15,2013-02-13 23:13:00,
2013-02-13 15:15:00,46.0,43.5,30.44,ENE,57,0.0,-999.0,91,0.00,,,0.01,37,Wunderground v.1.15,2013-02-13 23:15:00,
2013-02-13 15:17:00,46.0,43.5,30.44,ENE,57,0.0,-999.0,91,0.00,,,0.01,32,Wunderground v.1.15,2013-02-13 23:17:00,
2013-02-13 15:18:00,46.0,43.5,30.44,ENE,57,0.0,-999.0,91,0.00,,,0.01,32,Wunderground v.1.15,2013-02-13 23:18:00,
2013-02-13 15:20:00,46.0,43.5,30.44,ENE,57,0.0,-999.0,91,0.00,,,0.01,32,Wunderground v.1.15,2013-02-13 23:20:00,
2013-02-13 15:22:00,45.8,43.3,30.44,ENE,57,0.0,-999.0,91,0.00,,,0.01,32,Wunderground v.1.15,2013-02-13 23:22:00,
2013-02-13 15:23:00,45.8,43.3,30.44,ENE,57,0.0,-999.0,91,0.00,,,0.01,32,Wunderground v.1.15,2013-02-13 23:23:00,
2013-02-13 15:25:00,45.8,43.3,30.44,ENE,57,0.0,-999.0,91,0.00,,,0.01,28,Wunderground v.1.15,2013-02-13 23:25:00,
2013-02-13 15:27:00,45.7,43.2,30.44,ENE,57,0.0,-999.0,91,0.00,,,0.01,28,Wunderground v.1.15,2013-02-13 23:27:00,
2013-02-13 15:29:00,45.7,43.2,30.44,ENE,57,0.0,-999.0,91,0.00,,,0.01,37,Wunderground v.1.15,2013-02-13 23:29:00,
2013-02-13 15:30:00,45.5,43.0,30.44,ENE,57,0.0,-999.0,91,0.00,,,0.01,37,Wunderground v.1.15,2013-02-13 23:30:00,
2013-02-13 15:33:00,45.5,43.0,30.44,ENE,57,0.0,-999.0,91,0.00,,,0.01,37,Wunderground v.1.15,2013-02-13 23:33:00,
2013-02-13 15:35:00,45.5,43.0,30.44,ENE,57,0.0,-999.0,91,0.00,,,0.01,37,Wunderground v.1.15,2013-02-13 23:35:00,
2013-02-13 15:36:00,45.5,43.0,30.44,ENE,57,0.0,-999.0,91,0.00,,,0.01,37,Wunderground v.1.15,2013-02-13 23:36:00,
2013-02-13 15:39:00,45.5,43.0,30.44,ENE,57,0.0,-999.0,91,0.00,,,0.01,33,Wunderground v.1.15,2013-02-13 23:39:00,
2013-02-13 15:40:00,45.5,43.0,30.44,ENE,57,0.0,-999.0,91,0.00,,,0.01,33,Wunderground v.1.15,2013-02-13 23:40:00,
2013-02-13 15:41:00,45.5,43.0,30.44,ENE,57,0.0,-999.0,91,0.00,,,0.01,28,Wunderground v.1.15,2013-02-13 23:41:00,
2013-02-13 15:44:00,45.4,42.9,30.44,ENE,57,0.0,-999.0,91,0.00,,,0.01,28,Wunderground v.1.15,2013-02-13 23:44:00,
2013-02-13 15:45:00,45.4,42.9,30.44,ENE,57,0.0,-999.0,91,0.00,,,0.01,28,Wunderground v.1.15,2013-02-13 23:45:00,
2013-02-13 15:46:00,45.4,42.9,30.44,ENE,57,0.0,-999.0,91,0.00,,,0.01,30,Wunderground v.1.15,2013-02-13 23:46:00,
2013-02-13 15:49:00,45.2,42.7,30.44,ENE,57,0.0,-999.0,91,0.00,,,0.01,23,Wunderground v.1.15,2013-02-13 23:49:00,
2013-02-13 15:50:00,45.2,42.7,30.44,ENE,57,0.0,-999.0,91,0.00,,,0.01,23,Wunderground v.1.15,2013-02-13 23:50:00,
2013-02-13 15:51:00,45.2,42.7,30.44,NW,311,0.0,-999.0,91,0.00,,,0.01,23,Wunderground v.1.15,2013-02-13 23:51:00,
2013-02-13 15:54:00,45.2,42.7,30.44,NW,311,0.0,-999.0,91,0.00,,,0.01,19,Wunderground v.1.15,2013-02-13 23:54:00,
2013-02-13 15:55:00,45.1,42.6,30.44,NW,311,0.0,-999.0,91,0.00,,,0.01,19,Wunderground v.1.15,2013-02-13 23:55:00,
2013-02-13 15:56:00,45.1,42.6,30.44,NW,311,0.0,-999.0,91,0.00,,,0.01,19,Wunderground v.1.15,2013-02-13 23:56:00,
2013-02-13 15:59:00,44.9,42.4,30.44,NW,311,0.0,-999.0,91,0.00,,,0.01,18,Wunderground v.1.15,2013-02-13 23:59:00,
2013-02-13 16:00:00,44.9,42.4,30.44,NW,311,0.0,-999.0,91,0.00,,,0.01,18,Wunderground v.1.15,2013-02-14 00:00:00,
2013-02-13 16:01:00,44.9,42.4,30.44,NW,311,0.0,-999.0,91,0.00,,,0.01,18,Wunderground v.1.15,2013-02-14 00:01:00,
2013-02-13 16:02:00,44.9,42.4,30.44,NW,311,0.0,-999.0,91,0.00,,,0.01,18,Wunderground v.1.15,2013-02-14 00:02:00,
2013-02-13 16:05:00,44.9,42.4,30.44,NW,311,0.0,-999.0,91,0.00,,,0.01,19,Wunderground v.1.15,2013-02-14 00:05:00,
2013-02-13 16:06:00,44.9,42.4,30.44,NW,311,0.0,-999.0,91,0.00,,,0.01,18,Wunderground v.1.15,2013-02-14 00:06:00,
2013-02-13 16:07:00,44.9,42.4,30.44,NW,311,0.0,-999.0,91,0.00,,,0.01,18,Wunderground v.1.15,2013-02-14 00:07:00,
2013-02-13 16:10:00,44.9,42.4,30.44,NW,311,0.0,-999.0,91,0.00,,,0.01,18,Wunderground v.1.15,2013-02-14 00:10:00,
2013-02-13 16:11:00,44.9,42.4,30.44,NW,311,0.0,-999.0,91,0.00,,,0.01,16,Wunderground v.1.15,2013-02-14 00:11:00,
2013-02-13 16:12:00,44.9,42.4,30.44,NW,311,0.0,-999.0,91,0.00,,,0.01,16,Wunderground v.1.15,2013-02-14 00:12:00,
2013-02-13 16:15:00,44.8,42.3,30.45,NW,311,0.0,-999.0,91,0.00,,,0.01,19,Wunderground v.1.15,2013-02-14 00:15:00,
2013-02-13 16:16:00,44.8,42.3,30.45,NW,311,0.0,-999.0,91,0.00,,,0.01,19,Wunderground v.1.15,2013-02-14 00:16:00,
2013-02-13 16:17:00,44.8,42.3,30.45,NW,311,0.0,-999.0,91,0.00,,,0.01,19,Wunderground v.1.15,2013-02-14 00:17:00,
2013-02-13 16:21:00,44.8,42.3,30.45,WSW,238,0.0,-999.0,91,0.00,,,0.01,21,Wunderground v.1.15,2013-02-14 00:21:00,
2013-02-13 16:22:00,44.8,42.3,30.45,WSW,238,0.0,-999.0,91,0.00,,,0.01,21,Wunderground v.1.15,2013-02-14 00:22:00,
2013-02-13 16:26:00,44.7,42.2,30.45,WSW,238,0.0,-999.0,91,0.00,,,0.01,21,Wunderground v.1.15,2013-02-14 00:26:00,
2013-02-13 16:27:00,44.7,42.2,30.45,WSW,238,0.0,-999.0,91,0.00,,,0.01,18,Wunderground v.1.15,2013-02-14 00:27:00,
2013-02-13 16:32:00,44.5,42.0,30.45,WSW,239,0.0,-999.0,91,0.00,,,0.01,14,Wunderground v.1.15,2013-02-14 00:32:00,
2013-02-13 16:33:00,44.5,42.0,30.45,WSW,238,0.0,-999.0,91,0.00,,,0.01,14,Wunderground v.1.15,2013-02-14 00:33:00,
2013-02-13 16:37:00,44.4,41.9,30.45,WSW,238,0.0,-999.0,91,0.00,,,0.01,14,Wunderground v.1.15,2013-02-14 00:37:00,
2013-02-13 16:38:00,44.4,41.9,30.45,WSW,238,0.0,-999.0,91,0.00,,,0.01,14,Wunderground v.1.15,2013-02-14 00:38:00,
2013-02-13 16:42:00,44.4,41.9,30.45,West,261,0.0,-999.0,91,0.00,,,0.01,14,Wunderground v.1.15,2013-02-14 00:42:00,
2013-02-13 16:43:00,44.2,41.7,30.45,West,261,0.0,-999.0,91,0.00,,,0.01,14,Wunderground v.1.15,2013-02-14 00:43:00,
2013-02-13 16:44:00,44.2,41.7,30.45,West,261,0.0,-999.0,91,0.00,,,0.01,12,Wunderground v.1.15,2013-02-14 00:44:00,
2013-02-13 16:47:00,44.2,41.7,30.45,West,261,0.0,-999.0,91,0.00,,,0.01,12,Wunderground v.1.15,2013-02-14 00:47:00,
2013-02-13 16:48:00,44.2,41.7,30.45,WSW,258,0.0,-999.0,91,0.00,,,0.01,11,Wunderground v.1.15,2013-02-14 00:48:00,
2013-02-13 16:49:00,44.2,41.7,30.45,West,261,0.0,-999.0,91,0.00,,,0.01,11,Wunderground v.1.15,2013-02-14 00:49:00,
2013-02-13 16:52:00,44.2,41.7,30.45,West,261,0.0,-999.0,91,0.00,,,0.01,7,Wunderground v.1.15,2013-02-14 00:52:00,
2013-02-13 16:53:00,44.2,41.7,30.45,West,261,0.0,-999.0,91,0.00,,,0.01,7,Wunderground v.1.15,2013-02-14 00:53:00,
2013-02-13 16:54:00,44.2,41.7,30.45,West,261,0.0,-999.0,91,0.00,,,0.01,7,Wunderground v.1.15,2013-02-14 00:54:00,
2013-02-13 16:58:00,44.2,41.7,30.45,West,261,0.0,-999.0,91,0.00,,,0.01,5,Wunderground v.1.15,2013-02-14 00:58:00,
2013-02-13 16:59:00,44.2,41.7,30.45,West,261,0.0,-999.0,91,0.00,,,0.01,5,Wunderground v.1.15,2013-02-14 00:59:00,
2013-02-13 17:01:00,44.2,41.7,30.45,West,261,0.0,-999.0,91,0.00,,,0.01,5,Wunderground v.1.15,2013-02-14 01:01:00,
2013-02-13 17:03:00,44.2,41.7,30.45,West,261,0.0,-999.0,91,0.00,,,0.01,5,Wunderground v.1.15,2013-02-14 01:03:00,
2013-02-13 17:04:00,44.2,41.7,30.45,West,261,0.0,-999.0,91,0.00,,,0.01,5,Wunderground v.1.15,2013-02-14 01:04:00,
2013-02-13 17:06:00,44.2,41.7,30.45,West,261,0.0,-999.0,91,0.00,,,0.01,0,Wunderground v.1.15,2013-02-14 01:06:00,
2013-02-13 17:08:00,44.1,41.6,30.45,West,261,0.0,-999.0,91,0.00,,,0.01,0,Wunderground v.1.15,2013-02-14 01:08:00,
2013-02-13 17:09:00,44.1,41.6,30.45,West,261,0.0,-999.0,91,0.00,,,0.01,0,Wunderground v.1.15,2013-02-14 01:09:00,
2013-02-13 17:10:00,44.1,41.6,30.45,West,261,0.0,-999.0,91,0.00,,,0.01,0,Wunderground v.1.15,2013-02-14 01:10:00,
2013-02-13 17:12:00,44.1,41.6,30.45,West,261,0.0,-999.0,91,0.00,,,0.01,0,Wunderground v.1.15,2013-02-14 01:12:00,
2013-02-13 17:14:00,44.1,41.6,30.45,West,261,0.0,-999.0,91,0.00,,,0.01,0,Wunderground v.1.15,2013-02-14 01:14:00,
2013-02-13 17:15:00,44.1,41.6,30.45,West,261,0.0,-999.0,91,0.00,,,0.01,0,Wunderground v.1.15,2013-02-14 01:15:00,
2013-02-13 17:17:00,44.1,41.6,30.45,West,261,0.0,-999.0,91,0.00,,,0.01,0,Wunderground v.1.15,2013-02-14 01:17:00,
2013-02-13 17:19:00,43.9,41.4,30.45,West,261,0.0,-999.0,91,0.00,,,0.01,0,Wunderground v.1.15,2013-02-14 01:19:00,
2013-02-13 17:20:00,43.9,41.4,30.45,West,261,0.0,-999.0,91,0.00,,,0.01,0,Wunderground v.1.15,2013-02-14 01:20:00,
2013-02-13 17:22:00,43.9,41.4,30.45,West,261,0.0,-999.0,91,0.00,,,0.01,0,Wunderground v.1.15,2013-02-14 01:22:00,
2013-02-13 17:24:00,43.9,41.4,30.45,West,261,0.0,-999.0,91,0.00,,,0.01,0,Wunderground v.1.15,2013-02-14 01:24:00,
2013-02-13 17:25:00,43.9,41.4,30.45,West,261,0.0,-999.0,91,0.00,,,0.01,0,Wunderground v.1.15,2013-02-14 01:25:00,
2013-02-13 17:27:00,43.8,41.3,30.45,West,261,0.0,-999.0,91,0.00,,,0.01,0,Wunderground v.1.15,2013-02-14 01:27:00,
2013-02-13 17:30:00,43.8,41.3,30.45,West,261,0.0,-999.0,91,0.00,,,0.01,0,Wunderground v.1.15,2013-02-14 01:30:00,
2013-02-13 17:32:00,43.8,41.3,30.45,West,276,0.0,-999.0,91,0.00,,,0.01,0,Wunderground v.1.15,2013-02-14 01:32:00,
2013-02-13 17:35:00,43.8,41.3,30.45,West,276,0.0,-999.0,91,0.00,,,0.01,0,Wunderground v.1.15,2013-02-14 01:35:00,
2013-02-13 17:36:00,43.8,41.3,30.45,West,276,0.0,-999.0,91,0.00,,,0.01,0,Wunderground v.1.15,2013-02-14 01:36:00,
2013-02-13 17:38:00,43.8,41.3,30.45,West,276,0.0,-999.0,91,0.00,,,0.01,0,Wunderground v.1.15,2013-02-14 01:38:00,
2013-02-13 17:40:00,43.8,41.3,30.45,West,276,0.0,-999.0,91,0.00,,,0.01,0,Wunderground v.1.15,2013-02-14 01:40:00,
2013-02-13 17:42:00,43.8,41.3,30.45,West,276,1.0,-999.0,91,0.00,,,0.01,0,Wunderground v.1.15,2013-02-14 01:42:00,
2013-02-13 17:44:00,43.8,41.3,30.45,West,276,0.0,-999.0,91,0.00,,,0.01,0,Wunderground v.1.15,2013-02-14 01:44:00,
2013-02-13 17:45:00,43.8,41.3,30.46,West,276,0.0,-999.0,91,0.00,,,0.01,0,Wunderground v.1.15,2013-02-14 01:45:00,
2013-02-13 17:46:00,43.8,41.3,30.46,West,276,0.0,-999.0,91,0.00,,,0.01,0,Wunderground v.1.15,2013-02-14 01:46:00,
2013-02-13 17:47:00,43.8,41.3,30.46,West,276,0.0,-999.0,91,0.00,,,0.01,0,Wunderground v.1.15,2013-02-14 01:47:00,
2013-02-13 17:49:00,43.8,41.3,30.46,West,275,0.0,-999.0,91,0.00,,,0.01,0,Wunderground v.1.15,2013-02-14 01:49:00,
2013-02-13 17:51:00,43.8,41.3,30.46,West,276,0.0,-999.0,91,0.00,,,0.01,0,Wunderground v.1.15,2013-02-14 01:51:00,
2013-02-13 17:52:00,43.8,41.3,30.46,West,276,0.0,-999.0,91,0.00,,,0.01,0,Wunderground v.1.15,2013-02-14 01:52:00,
2013-02-13 17:56:00,43.8,41.3,30.46,West,276,0.0,-999.0,91,0.00,,,0.01,0,Wunderground v.1.15,2013-02-14 01:56:00,
2013-02-13 17:59:00,43.7,41.2,30.46,West,276,0.0,-999.0,91,0.00,,,0.01,0,Wunderground v.1.15,2013-02-14 01:59:00,
2013-02-13 18:01:00,43.7,41.2,30.46,West,276,0.0,-999.0,91,0.00,,,0.01,0,Wunderground v.1.15,2013-02-14 02:01:00,
2013-02-13 18:04:00,43.7,41.2,30.46,West,276,0.0,-999.0,91,0.00,,,0.01,0,Wunderground v.1.15,2013-02-14 02:04:00,
2013-02-13 18:06:00,43.7,41.2,30.46,West,276,0.0,-999.0,91,0.00,,,0.01,0,Wunderground v.1.15,2013-02-14 02:06:00,
2013-02-13 18:07:00,43.7,41.2,30.46,West,276,0.0,-999.0,91,0.00,,,0.01,0,Wunderground v.1.15,2013-02-14 02:07:00,
2013-02-13 18:10:00,43.7,41.2,30.46,West,276,0.0,-999.0,91,0.00,,,0.01,0,Wunderground v.1.15,2013-02-14 02:10:00,
2013-02-13 18:11:00,43.7,41.2,30.46,West,276,0.0,-999.0,91,0.00,,,0.01,0,Wunderground v.1.15,2013-02-14 02:11:00,
2013-02-13 18:12:00,43.7,41.2,30.46,West,276,0.0,-999.0,91,0.00,,,0.01,0,Wunderground v.1.15,2013-02-14 02:12:00,
2013-02-13 18:15:00,43.7,41.2,30.46,West,276,0.0,-999.0,91,0.00,,,0.01,0,Wunderground v.1.15,2013-02-14 02:15:00,
2013-02-13 18:16:00,43.7,41.2,30.46,West,275,0.0,-999.0,91,0.00,,,0.01,0,Wunderground v.1.15,2013-02-14 02:16:00,
2013-02-13 18:17:00,43.7,41.2,30.46,West,276,0.0,-999.0,91,0.00,,,0.01,0,Wunderground v.1.15,2013-02-14 02:17:00,
2013-02-13 18:20:00,43.7,41.2,30.46,West,275,0.0,-999.0,91,0.00,,,0.01,0,Wunderground v.1.15,2013-02-14 02:20:00,
2013-02-13 18:21:00,43.7,41.2,30.46,West,275,0.0,-999.0,91,0.00,,,0.01,0,Wunderground v.1.15,2013-02-14 02:21:00,
2013-02-13 18:22:00,43.7,41.2,30.46,West,276,0.0,-999.0,91,0.00,,,0.01,0,Wunderground v.1.15,2013-02-14 02:22:00,
2013-02-13 18:25:00,43.7,41.2,30.46,West,276,0.0,-999.0,91,0.00,,,0.01,0,Wunderground v.1.15,2013-02-14 02:25:00,
2013-02-13 18:26:00,43.7,41.2,30.46,West,276,0.0,-999.0,91,0.00,,,0.01,0,Wunderground v.1.15,2013-02-14 02:26:00,
2013-02-13 18:27:00,43.7,41.2,30.46,West,276,0.0,-999.0,91,0.00,,,0.01,0,Wunderground v.1.15,2013-02-14 02:27:00,
2013-02-13 18:28:00,43.7,41.2,30.46,West,276,0.0,-999.0,91,0.00,,,0.01,0,Wunderground v.1.15,2013-02-14 02:28:00,
2013-02-13 18:30:00,43.7,41.2,30.46,West,275,0.0,-999.0,91,0.00,,,0.01,0,Wunderground v.1.15,2013-02-14 02:30:00,
2013-02-13 18:31:00,43.7,41.2,30.46,West,276,0.0,-999.0,91,0.00,,,0.01,0,Wunderground v.1.15,2013-02-14 02:31:00,
2013-02-13 18:32:00,43.7,41.2,30.46,West,276,0.0,-999.0,91,0.00,,,0.01,0,Wunderground v.1.15,2013-02-14 02:32:00,
2013-02-13 18:33:00,43.5,41.0,30.46,West,276,0.0,-999.0,91,0.00,,,0.01,0,Wunderground v.1.15,2013-02-14 02:33:00,
2013-02-13 18:35:00,43.5,41.0,30.46,West,276,0.0,-999.0,91,0.00,,,0.01,0,Wunderground v.1.15,2013-02-14 02:35:00,
2013-02-13 18:36:00,43.5,41.0,30.46,West,275,0.0,-999.0,91,0.00,,,0.01,0,Wunderground v.1.15,2013-02-14 02:36:00,
2013-02-13 18:37:00,43.5,41.0,30.46,West,276,0.0,-999.0,91,0.00,,,0.01,0,Wunderground v.1.15,2013-02-14 02:37:00,
2013-02-13 18:38:00,43.5,41.0,30.46,West,276,0.0,-999.0,91,0.00,,,0.01,0,Wunderground v.1.15,2013-02-14 02:38:00,
2013-02-13 18:40:00,43.5,41.0,30.46,West,276,0.0,-999.0,91,0.00,,,0.01,0,Wunderground v.1.15,2013-02-14 02:40:00,
2013-02-13 18:41:00,43.5,41.0,30.46,West,276,0.0,-999.0,91,0.00,,,0.01,0,Wunderground v.1.15,2013-02-14 02:41:00,
2013-02-13 18:42:00,43.5,41.0,30.46,West,276,0.0,-999.0,91,0.00,,,0.01,0,Wunderground v.1.15,2013-02-14 02:42:00,
2013-02-13 18:44:00,43.5,41.0,30.46,West,276,0.0,-999.0,91,0.00,,,0.01,0,Wunderground v.1.15,2013-02-14 02:44:00,
2013-02-13 18:45:00,43.5,41.0,30.47,West,276,0.0,-999.0,91,0.00,,,0.01,0,Wunderground v.1.15,2013-02-14 02:45:00,
2013-02-13 18:46:00,43.5,41.0,30.47,West,276,0.0,-999.0,91,0.00,,,0.01,0,Wunderground v.1.15,2013-02-14 02:46:00,
2013-02-13 18:47:00,43.5,41.0,30.47,West,276,0.0,-999.0,91,0.00,,,0.01,0,Wunderground v.1.15,2013-02-14 02:47:00,
2013-02-13 18:49:00,43.5,41.0,30.47,West,275,0.0,-999.0,91,0.00,,,0.01,0,Wunderground v.1.15,2013-02-14 02:49:00,
2013-02-13 18:51:00,43.4,40.9,30.47,West,275,0.0,-999.0,91,0.00,,,0.01,0,Wunderground v.1.15,2013-02-14 02:51:00,
2013-02-13 18:52:00,43.4,40.9,30.47,West,276,0.0,-999.0,91,0.00,,,0.01,0,Wunderground v.1.15,2013-02-14 02:52:00,
2013-02-13 18:54:00,43.4,40.9,30.47,West,276,0.0,-999.0,91,0.00,,,0.01,0,Wunderground v.1.15,2013-02-14 02:54:00,
2013-02-13 18:56:00,43.4,40.9,30.47,West,276,0.0,-999.0,91,0.00,,,0.01,0,Wunderground v.1.15,2013-02-14 02:56:00,
2013-02-13 18:57:00,43.4,40.9,30.47,West,276,0.0,-999.0,91,0.00,,,0.01,0,Wunderground v.1.15,2013-02-14 02:57:00,
2013-02-13 18:59:00,43.4,40.9,30.47,West,276,0.0,-999.0,91,0.00,,,0.01,0,Wunderground v.1.15,2013-02-14 02:59:00,
2013-02-13 19:01:00,43.2,40.8,30.47,West,276,0.0,-999.0,91,0.00,,,0.01,0,Wunderground v.1.15,2013-02-14 03:01:00,
2013-02-13 19:02:00,43.2,40.8,30.47,West,276,0.0,-999.0,91,0.00,,,0.01,0,Wunderground v.1.15,2013-02-14 03:02:00,
2013-02-13 19:04:00,43.2,40.8,30.47,West,276,0.0,-999.0,91,0.00,,,0.01,0,Wunderground v.1.15,2013-02-14 03:04:00,
2013-02-13 19:07:00,43.2,40.8,30.47,West,276,0.0,-999.0,91,0.00,,,0.01,0,Wunderground v.1.15,2013-02-14 03:07:00,
2013-02-13 19:08:00,43.1,40.7,30.47,West,276,0.0,-999.0,91,0.00,,,0.01,0,Wunderground v.1.15,2013-02-14 03:08:00,
2013-02-13 19:09:00,43.1,40.7,30.47,West,276,0.0,-999.0,91,0.00,,,0.01,0,Wunderground v.1.15,2013-02-14 03:09:00,
2013-02-13 19:12:00,43.1,40.7,30.47,West,275,0.0,-999.0,91,0.00,,,0.01,0,Wunderground v.1.15,2013-02-14 03:12:00,
2013-02-13 19:13:00,43.1,40.7,30.47,West,276,0.0,-999.0,91,0.00,,,0.01,0,Wunderground v.1.15,2013-02-14 03:13:00,
2013-02-13 19:14:00,43.1,40.7,30.47,West,276,0.0,-999.0,91,0.00,,,0.01,0,Wunderground v.1.15,2013-02-14 03:14:00,
2013-02-13 19:18:00,42.9,40.5,30.47,West,272,0.0,-999.0,91,0.00,,,0.01,0,Wunderground v.1.15,2013-02-14 03:18:00,
2013-02-13 19:19:00,42.9,40.5,30.47,West,276,0.0,-999.0,91,0.00,,,0.01,0,Wunderground v.1.15,2013-02-14 03:19:00,
2013-02-13 19:23:00,42.8,40.4,30.47,West,276,0.0,-999.0,91,0.00,,,0.01,0,Wunderground v.1.15,2013-02-14 03:23:00,
2013-02-13 19:25:00,42.8,40.4,30.47,West,275,0.0,-999.0,91,0.00,,,0.01,0,Wunderground v.1.15,2013-02-14 03:25:00,
2013-02-13 19:28:00,42.8,40.4,30.47,West,276,0.0,-999.0,91,0.00,,,0.01,0,Wunderground v.1.15,2013-02-14 03:28:00,
2013-02-13 19:30:00,42.7,40.3,30.47,West,276,0.0,-999.0,91,0.00,,,0.01,0,Wunderground v.1.15,2013-02-14 03:30:00,
2013-02-13 19:33:00,42.7,40.3,30.47,West,276,0.0,-999.0,91,0.00,,,0.01,0,Wunderground v.1.15,2013-02-14 03:33:00,
2013-02-13 19:35:00,42.7,40.3,30.47,West,276,0.0,-999.0,91,0.00,,,0.01,0,Wunderground v.1.15,2013-02-14 03:35:00,
2013-02-13 19:38:00,42.5,40.1,30.47,West,276,0.0,-999.0,91,0.00,,,0.01,0,Wunderground v.1.15,2013-02-14 03:38:00,
2013-02-13 19:39:00,42.5,40.1,30.47,West,276,0.0,-999.0,91,0.00,,,0.01,0,Wunderground v.1.15,2013-02-14 03:39:00,
2013-02-13 19:41:00,42.5,40.1,30.47,West,275,0.0,-999.0,91,0.00,,,0.01,0,Wunderground v.1.15,2013-02-14 03:41:00,
2013-02-13 19:43:00,42.4,40.0,30.47,West,276,0.0,-999.0,91,0.00,,,0.01,0,Wunderground v.1.15,2013-02-14 03:43:00,
2013-02-13 19:44:00,42.4,40.0,30.47,West,276,0.0,-999.0,91,0.00,,,0.01,0,Wunderground v.1.15,2013-02-14 03:44:00,
2013-02-13 19:46:00,42.4,40.0,30.48,West,276,0.0,-999.0,91,0.00,,,0.01,0,Wunderground v.1.15,2013-02-14 03:46:00,
2013-02-13 19:48:00,42.4,40.0,30.48,West,276,0.0,-999.0,91,0.00,,,0.01,0,Wunderground v.1.15,2013-02-14 03:48:00,
2013-02-13 19:49:00,42.4,40.0,30.48,West,276,0.0,-999.0,91,0.00,,,0.01,0,Wunderground v.1.15,2013-02-14 03:49:00,
2013-02-13 19:51:00,42.4,40.0,30.48,West,276,0.0,-999.0,91,0.00,,,0.01,0,Wunderground v.1.15,2013-02-14 03:51:00,
2013-02-13 19:53:00,42.2,39.8,30.48,West,276,0.0,-999.0,91,0.00,,,0.01,0,Wunderground v.1.15,2013-02-14 03:53:00,
2013-02-13 19:54:00,42.2,39.8,30.48,West,275,0.0,-999.0,91,0.00,,,0.01,0,Wunderground v.1.15,2013-02-14 03:54:00,
2013-02-13 19:57:00,42.2,39.8,30.48,West,276,0.0,-999.0,91,0.00,,,0.01,0,Wunderground v.1.15,2013-02-14 03:57:00,
2013-02-13 19:59:00,42.2,39.8,30.48,West,276,0.0,-999.0,91,0.00,,,0.01,0,Wunderground v.1.15,2013-02-14 03:59:00,
2013-02-13 20:00:00,42.2,39.8,30.48,West,276,0.0,-999.0,91,0.00,,,0.01,0,Wunderground v.1.15,2013-02-14 04:00:00,
2013-02-13 20:02:00,42.2,39.8,30.47,West,276,0.0,-999.0,91,0.00,,,0.01,0,Wunderground v.1.15,2013-02-14 04:02:00,
2013-02-13 20:04:00,42.2,39.8,30.47,West,276,0.0,-999.0,91,0.00,,,0.01,0,Wunderground v.1.15,2013-02-14 04:04:00,
2013-02-13 20:05:00,42.2,39.8,30.47,West,276,0.0,-999.0,91,0.00,,,0.01,0,Wunderground v.1.15,2013-02-14 04:05:00,
2013-02-13 20:07:00,42.1,39.7,30.47,West,275,0.0,-999.0,91,0.00,,,0.01,0,Wunderground v.1.15,2013-02-14 04:07:00,
2013-02-13 20:09:00,42.1,39.7,30.47,West,276,0.0,-999.0,91,0.00,,,0.01,0,Wunderground v.1.15,2013-02-14 04:09:00,
2013-02-13 20:10:00,42.1,39.7,30.47,West,276,0.0,-999.0,91,0.00,,,0.01,0,Wunderground v.1.15,2013-02-14 04:10:00,
2013-02-13 20:12:00,42.1,39.7,30.47,West,276,0.0,-999.0,91,0.00,,,0.01,0,Wunderground v.1.15,2013-02-14 04:12:00,
2013-02-13 20:14:00,42.1,39.7,30.47,West,276,0.0,-999.0,91,0.00,,,0.01,0,Wunderground v.1.15,2013-02-14 04:14:00,
2013-02-13 20:15:00,42.1,39.7,30.47,West,276,0.0,-999.0,91,0.00,,,0.01,0,Wunderground v.1.15,2013-02-14 04:15:00,
2013-02-13 20:17:00,42.1,39.7,30.48,West,276,0.0,-999.0,91,0.00,,,0.01,0,Wunderground v.1.15,2013-02-14 04:17:00,
2013-02-13 20:20:00,42.1,39.7,30.48,West,276,0.0,-999.0,91,0.00,,,0.01,0,Wunderground v.1.15,2013-02-14 04:20:00,
2013-02-13 20:23:00,42.1,39.7,30.48,West,276,0.0,-999.0,91,0.00,,,0.01,0,Wunderground v.1.15,2013-02-14 04:23:00,
2013-02-13 20:25:00,42.1,39.7,30.48,West,276,0.0,-999.0,91,0.00,,,0.01,0,Wunderground v.1.15,2013-02-14 04:25:00,
2013-02-13 20:28:00,41.9,39.5,30.48,West,276,0.0,-999.0,91,0.00,,,0.01,0,Wunderground v.1.15,2013-02-14 04:28:00,
2013-02-13 20:30:00,41.9,39.5,30.48,West,275,0.0,-999.0,91,0.00,,,0.01,0,Wunderground v.1.15,2013-02-14 04:30:00,
2013-02-13 20:33:00,41.9,39.5,30.48,West,276,0.0,-999.0,91,0.00,,,0.01,0,Wunderground v.1.15,2013-02-14 04:33:00,
2013-02-13 20:35:00,41.9,39.5,30.48,West,276,0.0,-999.0,91,0.00,,,0.01,0,Wunderground v.1.15,2013-02-14 04:35:00,
2013-02-13 20:36:00,41.9,39.5,30.48,West,276,0.0,-999.0,91,0.00,,,0.01,0,Wunderground v.1.15,2013-02-14 04:36:00,
2013-02-13 20:39:00,41.9,39.5,30.48,West,276,0.0,-999.0,91,0.00,,,0.01,0,Wunderground v.1.15,2013-02-14 04:39:00,
2013-02-13 20:40:00,41.9,39.5,30.48,West,276,0.0,-999.0,91,0.00,,,0.01,0,Wunderground v.1.15,2013-02-14 04:40:00,
2013-02-13 20:41:00,41.9,39.5,30.48,West,276,0.0,-999.0,91,0.00,,,0.01,0,Wunderground v.1.15,2013-02-14 04:41:00,
2013-02-13 20:44:00,41.9,39.5,30.48,West,275,0.0,-999.0,91,0.00,,,0.01,0,Wunderground v.1.15,2013-02-14 04:44:00,
2013-02-13 20:45:00,41.9,39.5,30.48,West,276,0.0,-999.0,91,0.00,,,0.01,0,Wunderground v.1.15,2013-02-14 04:45:00,
2013-02-13 20:46:00,41.9,39.5,30.48,West,276,0.0,-999.0,91,0.00,,,0.01,0,Wunderground v.1.15,2013-02-14 04:46:00,
2013-02-13 20:49:00,41.8,39.4,30.48,West,276,0.0,-999.0,91,0.00,,,0.01,0,Wunderground v.1.15,2013-02-14 04:49:00,
2013-02-13 20:51:00,41.8,39.4,30.48,West,276,0.0,-999.0,91,0.00,,,0.01,0,Wunderground v.1.15,2013-02-14 04:51:00,
2013-02-13 20:54:00,41.9,39.5,30.48,West,276,0.0,-999.0,91,0.00,,,0.01,0,Wunderground v.1.15,2013-02-14 04:54:00,
2013-02-13 20:56:00,41.9,39.5,30.48,West,276,0.0,-999.0,91,0.00,,,0.01,0,Wunderground v.1.15,2013-02-14 04:56:00,
2013-02-13 20:57:00,41.9,39.5,30.48,West,276,0.0,-999.0,91,0.00,,,0.01,0,Wunderground v.1.15,2013-02-14 04:57:00,
2013-02-13 20:59:00,41.9,39.5,30.48,West,276,0.0,-999.0,91,0.00,,,0.01,0,Wunderground v.1.15,2013-02-14 04:59:00,
2013-02-13 21:00:00,41.9,39.5,30.48,West,276,0.0,-999.0,91,0.00,,,0.01,0,Wunderground v.1.15,2013-02-14 05:00:00,
2013-02-13 21:05:00,41.9,39.5,30.48,West,276,0.0,-999.0,91,0.00,,,0.01,0,Wunderground v.1.15,2013-02-14 05:05:00,
2013-02-13 21:10:00,41.9,39.5,30.48,West,276,0.0,-999.0,91,0.00,,,0.01,0,Wunderground v.1.15,2013-02-14 05:10:00,
2013-02-13 21:11:00,41.9,39.5,30.48,West,276,0.0,-999.0,91,0.00,,,0.01,0,Wunderground v.1.15,2013-02-14 05:11:00,
2013-02-13 21:16:00,41.9,39.5,30.48,West,276,0.0,-999.0,91,0.00,,,0.01,0,Wunderground v.1.15,2013-02-14 05:16:00,
2013-02-13 21:21:00,41.9,39.5,30.48,West,276,0.0,-999.0,91,0.00,,,0.01,0,Wunderground v.1.15,2013-02-14 05:21:00,
2013-02-13 21:22:00,41.9,39.5,30.48,West,276,0.0,-999.0,91,0.00,,,0.01,0,Wunderground v.1.15,2013-02-14 05:22:00,
2013-02-13 21:26:00,42.1,39.7,30.48,West,276,0.0,-999.0,91,0.00,,,0.01,0,Wunderground v.1.15,2013-02-14 05:26:00,
2013-02-13 21:28:00,42.1,39.7,30.48,West,276,0.0,-999.0,91,0.00,,,0.01,0,Wunderground v.1.15,2013-02-14 05:28:00,
2013-02-13 21:31:00,42.1,39.7,30.49,West,276,0.0,-999.0,91,0.00,,,0.01,0,Wunderground v.1.15,2013-02-14 05:31:00,
2013-02-13 21:32:00,42.1,39.7,30.49,West,276,0.0,-999.0,91,0.00,,,0.01,0,Wunderground v.1.15,2013-02-14 05:32:00,
2013-02-13 21:33:00,42.1,39.7,30.49,West,276,0.0,-999.0,91,0.00,,,0.01,0,Wunderground v.1.15,2013-02-14 05:33:00,
2013-02-13 21:36:00,42.1,39.7,30.49,West,276,0.0,-999.0,91,0.00,,,0.01,0,Wunderground v.1.15,2013-02-14 05:36:00,
2013-02-13 21:37:00,42.1,39.7,30.49,West,276,0.0,-999.0,91,0.00,,,0.01,0,Wunderground v.1.15,2013-02-14 05:37:00,
2013-02-13 21:39:00,42.1,39.7,30.49,West,276,0.0,-999.0,91,0.00,,,0.01,0,Wunderground v.1.15,2013-02-14 05:39:00,
2013-02-13 21:41:00,42.1,39.7,30.49,West,276,0.0,-999.0,91,0.00,,,0.01,0,Wunderground v.1.15,2013-02-14 05:41:00,
2013-02-13 21:42:00,42.1,39.7,30.49,West,276,0.0,-999.0,91,0.00,,,0.01,0,Wunderground v.1.15,2013-02-14 05:42:00,
2013-02-13 21:44:00,42.1,39.7,30.49,West,276,0.0,-999.0,91,0.00,,,0.01,0,Wunderground v.1.15,2013-02-14 05:44:00,
2013-02-13 21:46:00,42.1,39.7,30.49,West,276,0.0,-999.0,91,0.00,,,0.01,0,Wunderground v.1.15,2013-02-14 05:46:00,
2013-02-13 21:47:00,42.1,39.7,30.49,West,276,0.0,-999.0,91,0.00,,,0.01,0,Wunderground v.1.15,2013-02-14 05:47:00,
2013-02-13 21:49:00,42.2,39.8,30.49,West,276,0.0,-999.0,91,0.00,,,0.01,0,Wunderground v.1.15,2013-02-14 05:49:00,
2013-02-13 21:52:00,42.2,39.8,30.49,West,276,0.0,-999.0,91,0.00,,,0.01,0,Wunderground v.1.15,2013-02-14 05:52:00,
2013-02-13 21:53:00,42.2,39.8,30.49,West,276,0.0,-999.0,91,0.00,,,0.01,0,Wunderground v.1.15,2013-02-14 05:53:00,
2013-02-13 21:54:00,42.2,39.8,30.49,West,276,0.0,-999.0,91,0.00,,,0.01,0,Wunderground v.1.15,2013-02-14 05:54:00,
2013-02-13 21:57:00,42.2,39.8,30.49,West,276,0.0,-999.0,91,0.00,,,0.01,0,Wunderground v.1.15,2013-02-14 05:57:00,
2013-02-13 21:58:00,42.2,39.8,30.49,West,276,0.0,-999.0,91,0.00,,,0.01,0,Wunderground v.1.15,2013-02-14 05:58:00,
2013-02-13 22:00:00,42.2,39.8,30.49,West,276,0.0,-999.0,91,0.00,,,0.01,0,Wunderground v.1.15,2013-02-14 06:00:00,
2013-02-13 22:02:00,42.2,39.8,30.50,West,275,0.0,-999.0,91,0.00,,,0.01,0,Wunderground v.1.15,2013-02-14 06:02:00,
2013-02-13 22:03:00,42.2,39.8,30.50,West,276,0.0,-999.0,91,0.00,,,0.01,0,Wunderground v.1.15,2013-02-14 06:03:00,
2013-02-13 22:05:00,42.2,39.8,30.50,West,276,0.0,-999.0,91,0.00,,,0.01,0,Wunderground v.1.15,2013-02-14 06:05:00,
2013-02-13 22:07:00,42.2,39.8,30.50,West,276,0.0,-999.0,91,0.00,,,0.01,0,Wunderground v.1.15,2013-02-14 06:07:00,
2013-02-13 22:08:00,42.2,39.8,30.50,West,276,0.0,-999.0,91,0.00,,,0.01,0,Wunderground v.1.15,2013-02-14 06:08:00,
2013-02-13 22:10:00,42.2,39.8,30.50,West,276,0.0,-999.0,91,0.00,,,0.01,0,Wunderground v.1.15,2013-02-14 06:10:00,
2013-02-13 22:12:00,42.2,39.8,30.50,West,276,0.0,-999.0,91,0.00,,,0.01,0,Wunderground v.1.15,2013-02-14 06:12:00,
2013-02-13 22:14:00,42.2,39.8,30.50,West,276,0.0,-999.0,91,0.00,,,0.01,0,Wunderground v.1.15,2013-02-14 06:14:00,
2013-02-13 22:15:00,42.2,39.8,30.50,West,276,0.0,-999.0,91,0.00,,,0.01,0,Wunderground v.1.15,2013-02-14 06:15:00,
2013-02-13 22:17:00,42.2,39.8,30.50,West,276,0.0,-999.0,91,0.00,,,0.01,0,Wunderground v.1.15,2013-02-14 06:17:00,
2013-02-13 22:19:00,42.2,39.8,30.50,West,276,0.0,-999.0,91,0.00,,,0.01,0,Wunderground v.1.15,2013-02-14 06:19:00,
2013-02-13 22:20:00,42.2,39.8,30.50,West,276,0.0,-999.0,91,0.00,,,0.01,0,Wunderground v.1.15,2013-02-14 06:20:00,
2013-02-13 22:22:00,42.2,39.8,30.50,West,276,0.0,-999.0,91,0.00,,,0.01,0,Wunderground v.1.15,2013-02-14 06:22:00,
2013-02-13 22:23:00,42.2,39.8,30.50,West,276,0.0,-999.0,91,0.00,,,0.01,0,Wunderground v.1.15,2013-02-14 06:23:00,
2013-02-13 22:24:00,42.2,39.8,30.50,West,276,0.0,-999.0,91,0.00,,,0.01,0,Wunderground v.1.15,2013-02-14 06:24:00,
2013-02-13 22:25:00,42.2,39.8,30.50,West,276,0.0,-999.0,91,0.00,,,0.01,0,Wunderground v.1.15,2013-02-14 06:25:00,
2013-02-13 22:28:00,42.2,39.8,30.50,West,276,0.0,-999.0,91,0.00,,,0.01,0,Wunderground v.1.15,2013-02-14 06:28:00,
2013-02-13 22:29:00,42.2,39.8,30.50,West,276,0.0,-999.0,91,0.00,,,0.01,0,Wunderground v.1.15,2013-02-14 06:29:00,
2013-02-13 22:30:00,42.2,39.8,30.50,West,275,0.0,-999.0,91,0.00,,,0.01,0,Wunderground v.1.15,2013-02-14 06:30:00,
2013-02-13 22:33:00,42.2,39.8,30.50,West,276,0.0,-999.0,91,0.00,,,0.01,0,Wunderground v.1.15,2013-02-14 06:33:00,
2013-02-13 22:35:00,42.2,39.8,30.50,West,276,0.0,-999.0,91,0.00,,,0.01,0,Wunderground v.1.15,2013-02-14 06:35:00,
2013-02-13 22:38:00,42.2,39.8,30.50,West,275,0.0,-999.0,91,0.00,,,0.01,0,Wunderground v.1.15,2013-02-14 06:38:00,
2013-02-13 22:39:00,42.2,39.8,30.50,West,276,0.0,-999.0,91,0.00,,,0.01,0,Wunderground v.1.15,2013-02-14 06:39:00,
2013-02-13 22:40:00,42.2,39.8,30.50,West,276,0.0,-999.0,91,0.00,,,0.01,0,Wunderground v.1.15,2013-02-14 06:40:00,
2013-02-13 22:43:00,42.2,39.8,30.50,West,276,0.0,-999.0,91,0.00,,,0.01,0,Wunderground v.1.15,2013-02-14 06:43:00,
2013-02-13 22:44:00,42.2,39.8,30.50,West,276,0.0,-999.0,91,0.00,,,0.01,0,Wunderground v.1.15,2013-02-14 06:44:00,
2013-02-13 22:45:00,42.2,39.8,30.50,West,276,0.0,-999.0,91,0.00,,,0.01,0,Wunderground v.1.15,2013-02-14 06:45:00,
2013-02-13 22:46:00,42.2,39.8,30.50,West,276,0.0,-999.0,91,0.00,,,0.01,0,Wunderground v.1.15,2013-02-14 06:46:00,
2013-02-13 22:48:00,42.2,39.8,30.50,West,275,0.0,-999.0,91,0.00,,,0.01,0,Wunderground v.1.15,2013-02-14 06:48:00,
2013-02-13 22:50:00,42.2,39.8,30.50,West,276,0.0,-999.0,91,0.00,,,0.01,0,Wunderground v.1.15,2013-02-14 06:50:00,
2013-02-13 22:51:00,42.2,39.8,30.50,West,276,0.0,-999.0,91,0.00,,,0.01,0,Wunderground v.1.15,2013-02-14 06:51:00,
2013-02-13 22:53:00,42.2,39.8,30.50,West,276,0.0,-999.0,91,0.00,,,0.01,0,Wunderground v.1.15,2013-02-14 06:53:00,
2013-02-13 22:55:00,42.2,39.8,30.50,West,276,0.0,-999.0,91,0.00,,,0.01,0,Wunderground v.1.15,2013-02-14 06:55:00,
2013-02-13 22:56:00,42.2,39.8,30.50,West,276,0.0,-999.0,91,0.00,,,0.01,0,Wunderground v.1.15,2013-02-14 06:56:00,
2013-02-13 22:57:00,42.2,39.8,30.50,West,276,0.0,-999.0,91,0.00,,,0.01,0,Wunderground v.1.15,2013-02-14 06:57:00,
2013-02-13 22:58:00,42.2,39.8,30.50,West,276,0.0,-999.0,91,0.00,,,0.01,0,Wunderground v.1.15,2013-02-14 06:58:00,
2013-02-13 23:00:00,42.2,39.8,30.50,West,276,0.0,-999.0,91,0.00,,,0.01,0,Wunderground v.1.15,2013-02-14 07:00:00,
2013-02-13 23:01:00,42.2,39.8,30.50,West,276,0.0,-999.0,91,0.00,,,0.01,0,Wunderground v.1.15,2013-02-14 07:01:00,
2013-02-13 23:02:00,42.1,39.7,30.50,West,276,0.0,-999.0,91,0.00,,,0.01,0,Wunderground v.1.15,2013-02-14 07:02:00,
2013-02-13 23:04:00,42.1,39.7,30.50,West,276,0.0,-999.0,91,0.00,,,0.01,0,Wunderground v.1.15,2013-02-14 07:04:00,
2013-02-13 23:06:00,42.1,39.7,30.50,West,276,0.0,-999.0,91,0.00,,,0.01,0,Wunderground v.1.15,2013-02-14 07:06:00,
2013-02-13 23:07:00,42.1,39.7,30.50,West,276,0.0,-999.0,91,0.00,,,0.01,0,Wunderground v.1.15,2013-02-14 07:07:00,
2013-02-13 23:09:00,42.1,39.7,30.50,West,276,0.0,-999.0,91,0.00,,,0.01,0,Wunderground v.1.15,2013-02-14 07:09:00,
2013-02-13 23:11:00,42.2,39.8,30.50,West,276,0.0,-999.0,91,0.00,,,0.01,0,Wunderground v.1.15,2013-02-14 07:11:00,
2013-02-13 23:12:00,42.2,39.8,30.50,West,276,0.0,-999.0,91,0.00,,,0.01,0,Wunderground v.1.15,2013-02-14 07:12:00,
2013-02-13 23:15:00,42.2,39.8,30.50,West,276,0.0,-999.0,91,0.00,,,0.01,0,Wunderground v.1.15,2013-02-14 07:15:00,
2013-02-13 23:17:00,42.2,39.8,30.50,West,276,0.0,-999.0,91,0.00,,,0.01,0,Wunderground v.1.15,2013-02-14 07:17:00,
2013-02-13 23:20:00,42.2,39.8,30.50,West,276,0.0,-999.0,91,0.00,,,0.01,0,Wunderground v.1.15,2013-02-14 07:20:00,
2013-02-13 23:22:00,42.2,39.8,30.50,West,276,0.0,-999.0,91,0.00,,,0.01,0,Wunderground v.1.15,2013-02-14 07:22:00,
2013-02-13 23:25:00,42.2,39.8,30.50,West,276,0.0,-999.0,91,0.00,,,0.01,0,Wunderground v.1.15,2013-02-14 07:25:00,
2013-02-13 23:28:00,42.2,39.8,30.50,West,272,0.0,-999.0,91,0.00,,,0.01,0,Wunderground v.1.15,2013-02-14 07:28:00,
2013-02-13 23:30:00,42.2,39.8,30.50,West,276,0.0,-999.0,91,0.00,,,0.01,0,Wunderground v.1.15,2013-02-14 07:30:00,
2013-02-13 23:33:00,42.2,39.8,30.50,West,276,0.0,-999.0,91,0.00,,,0.01,0,Wunderground v.1.15,2013-02-14 07:33:00,
2013-02-13 23:35:00,42.2,39.8,30.50,West,276,0.0,-999.0,91,0.00,,,0.01,0,Wunderground v.1.15,2013-02-14 07:35:00,
2013-02-13 23:38:00,42.2,39.8,30.50,West,276,0.0,-999.0,91,0.00,,,0.01,0,Wunderground v.1.15,2013-02-14 07:38:00,
2013-02-13 23:39:00,42.2,39.8,30.50,West,276,0.0,-999.0,91,0.00,,,0.01,0,Wunderground v.1.15,2013-02-14 07:39:00,
2013-02-13 23:41:00,42.1,39.7,30.50,West,275,0.0,-999.0,91,0.00,,,0.01,0,Wunderground v.1.15,2013-02-14 07:41:00,
2013-02-13 23:44:00,42.1,39.7,30.50,West,276,0.0,-999.0,91,0.00,,,0.01,0,Wunderground v.1.15,2013-02-14 07:44:00,
2013-02-13 23:46:00,42.1,39.7,30.51,West,276,0.0,-999.0,91,0.00,,,0.01,0,Wunderground v.1.15,2013-02-14 07:46:00,
2013-02-13 23:49:00,42.1,39.7,30.51,West,276,0.0,-999.0,91,0.00,,,0.01,0,Wunderground v.1.15,2013-02-14 07:49:00,
2013-02-13 23:51:00,42.1,39.7,30.51,West,276,0.0,-999.0,91,0.00,,,0.01,0,Wunderground v.1.15,2013-02-14 07:51:00,
2013-02-13 23:54:00,42.1,39.7,30.51,West,276,0.0,-999.0,91,0.00,,,0.01,0,Wunderground v.1.15,2013-02-14 07:54:00,
2013-02-13 23:57:00,42.1,39.7,30.51,West,276,0.0,-999.0,91,0.00,,,0.01,0,Wunderground v.1.15,2013-02-14 07:57:00,
2013-02-13 23:59:00,42.1,39.7,30.51,West,276,0.0,-999.0,91,0.00,,,0.01,0,Wunderground v.1.15,2013-02-14 07:59:00,